Observation data for Big Lake on 11/14/2019      Previous  Date       Current Mesonet Observations  Soil Data  Daily Summary Page  Observations in Plain Language
KBI1 140600Z 18011KT 02/02 A3005 RMK A01 T00240016  RH  094%=      5-min Rain = 0
KBI1 140601Z 19010KT 02/02 A3005 RMK A01 T00240016  RH  095%=      5-min Rain = 0
KBI1 140602Z 18009KT 02/02 A3005 RMK A01 T00240016  RH  095%=      5-min Rain = 0
KBI1 140603Z 19009KT 02/02 A3005 RMK A01 T00240016  RH  095%=      5-min Rain = 0
KBI1 140604Z 19007KT 02/02 A3005 RMK A01 T00240016  RH  095%=      5-min Rain = 0
KBI1 140605Z 19008KT 02/02 A3005 RMK A01 T00240016  RH  095%=      5-min Rain = 0
KBI1 140606Z 18009KT 02/02 A3005 RMK A01 T00240016  RH  095%=      5-min Rain = 0
KBI1 140607Z 19007KT 02/02 A3005 RMK A01 T00240016  RH  095%=      5-min Rain = 0
KBI1 140608Z 18007KT 02/02 A3005 RMK A01 T00240017  RH  095%=      5-min Rain = 0
KBI1 140609Z 19008KT 02/02 A3005 RMK A01 T00240016  RH  095%=      5-min Rain = 0
KBI1 140610Z 18008KT 02/02 A3005 RMK A01 T00240016  RH  095%=      5-min Rain = 0
KBI1 140611Z 18008KT 02/02 A3005 RMK A01 T00240017  RH  095%=      5-min Rain = 0
KBI1 140612Z 18008KT 02/02 A3005 RMK A01 T00240017  RH  095%=      5-min Rain = 0
KBI1 140613Z 18007KT 02/02 A3005 RMK A01 T00240017  RH  095%=      5-min Rain = 0
KBI1 140614Z 18007KT 02/02 A3005 RMK A01 T00240017  RH  095%=      5-min Rain = 0
KBI1 140615Z 18008KT 02/02 A3005 RMK A01 T00240017  RH  095%=      5-min Rain = 0
KBI1 140616Z 18008KT 02/02 A3005 RMK A01 T00240017  RH  095%=      5-min Rain = 0
KBI1 140617Z 18008KT 02/02 A3005 RMK A01 T00240017  RH  095%=      5-min Rain = 0
KBI1 140618Z 19007KT 02/02 A3005 RMK A01 T00240017  RH  095%=      5-min Rain = 0
KBI1 140619Z 18007KT 02/02 A3004 RMK A01 T00240017  RH  095%=      5-min Rain = 0
KBI1 140620Z 18008KT 03/02 A3004 RMK A01 T00250017  RH  095%=      5-min Rain = 0
KBI1 140621Z 19006KT 02/02 A3004 RMK A01 T00240017  RH  095%=      5-min Rain = 0
KBI1 140622Z 19007KT 03/02 A3004 RMK A01 T00250017  RH  095%=      5-min Rain = 0
KBI1 140623Z 18007KT 03/02 A3004 RMK A01 T00250017  RH  095%=      5-min Rain = 0
KBI1 140624Z 19006KT 03/02 A3004 RMK A01 T00250017  RH  095%=      5-min Rain = 0
KBI1 140625Z 19008KT 03/02 A3004 RMK A01 T00250017  RH  095%=      5-min Rain = 0
KBI1 140626Z 20009KT 03/02 A3004 RMK A01 T00250018  RH  095%=      5-min Rain = 0
KBI1 140627Z 20008KT 03/02 A3004 RMK A01 T00250017  RH  095%=      5-min Rain = 0
KBI1 140628Z 20009KT 03/02 A3004 RMK A01 T00250017  RH  095%=      5-min Rain = 0
KBI1 140629Z 19009KT 03/02 A3004 RMK A01 T00250018  RH  095%=      5-min Rain = 0
KBI1 140630Z 20009KT 03/02 A3004 RMK A01 T00250018  RH  095%=      5-min Rain = 0
KBI1 140631Z 20009KT 03/02 A3004 RMK A01 T00250018  RH  095%=      5-min Rain = 0
KBI1 140632Z 19010KT 03/02 A3004 RMK A01 T00250018  RH  095%=      5-min Rain = 0
KBI1 140633Z 19009KT 02/02 A3004 RMK A01 T00240017  RH  095%=      5-min Rain = 0
KBI1 140634Z 19007KT 03/02 A3004 RMK A01 T00250018  RH  095%=      5-min Rain = 0
KBI1 140635Z 19006KT 03/02 A3004 RMK A01 T00250018  RH  095%=      5-min Rain = 0
KBI1 140636Z 20006KT 03/02 A3005 RMK A01 T00250018  RH  095%=      5-min Rain = 0
KBI1 140637Z 19006KT 02/02 A3005 RMK A01 T00240018  RH  095%=      5-min Rain = 0
KBI1 140638Z 19006KT 03/02 A3005 RMK A01 T00250018  RH  095%=      5-min Rain = 0
KBI1 140639Z 20008KT 03/02 A3005 RMK A01 T00250018  RH  095%=      5-min Rain = 0
KBI1 140640Z 19008KT 03/02 A3005 RMK A01 T00250018  RH  095%=      5-min Rain = 0
KBI1 140641Z 19009KT 03/02 A3005 RMK A01 T00250018  RH  095%=      5-min Rain = 0
KBI1 140642Z 19007KT 03/02 A3005 RMK A01 T00250018  RH  095%=      5-min Rain = 0
KBI1 140643Z 19006KT 03/02 A3005 RMK A01 T00250018  RH  095%=      5-min Rain = 0
KBI1 140644Z 19007KT 03/02 A3005 RMK A01 T00250018  RH  095%=      5-min Rain = 0
KBI1 140645Z 20006KT 03/02 A3005 RMK A01 T00250018  RH  095%=      5-min Rain = 0
KBI1 140646Z 19007KT 03/02 A3005 RMK A01 T00250018  RH  095%=      5-min Rain = 0
KBI1 140647Z 19006KT 03/02 A3005 RMK A01 T00250018  RH  095%=      5-min Rain = 0
KBI1 140648Z 18008KT 03/02 A3005 RMK A01 T00250018  RH  096%=      5-min Rain = 0
KBI1 140649Z 18009KT 03/02 A3005 RMK A01 T00250018  RH  096%=      5-min Rain = 0
KBI1 140650Z 18009KT 03/02 A3005 RMK A01 T00250018  RH  096%=      5-min Rain = 0
KBI1 140651Z 19011KT 02/02 A3005 RMK A01 T00240018  RH  096%=      5-min Rain = 0
KBI1 140652Z 19009KT 03/02 A3005 RMK A01 T00250018  RH  096%=      5-min Rain = 0
KBI1 140653Z 19008KT 03/02 A3005 RMK A01 T00250018  RH  096%=      5-min Rain = 0
KBI1 140654Z 19007KT 03/02 A3005 RMK A01 T00250018  RH  096%=      5-min Rain = 0
KBI1 140655Z 21008KT 03/02 A3006 RMK A01 T00250018  RH  096%=      5-min Rain = 0
KBI1 140656Z 21009KT 03/02 A3006 RMK A01 T00250018  RH  096%=      5-min Rain = 0
KBI1 140657Z 21008KT 03/02 A3005 RMK A01 T00250018  RH  096%=      5-min Rain = 0
KBI1 140658Z 21008KT 03/02 A3005 RMK A01 T00250019  RH  096%=      5-min Rain = 0
KBI1 140659Z 20007KT 03/02 A3005 RMK A01 T00250018  RH  096%=      5-min Rain = 0
KBI1 140700Z 20006KT 03/02 A3005 RMK A01 T00250018  RH  096%=      5-min Rain = 0
KBI1 140701Z 20006KT 02/02 A3005 RMK A01 T00240018  RH  096%=      5-min Rain = 0
KBI1 140702Z 21005KT 03/02 A3005 RMK A01 T00250018  RH  096%=      5-min Rain = 0
KBI1 140703Z 21005KT 03/02 A3005 RMK A01 T00250018  RH  096%=      5-min Rain = 0
KBI1 140704Z 21005KT 03/02 A3005 RMK A01 T00250018  RH  096%=      5-min Rain = 0
KBI1 140705Z 21005KT 03/02 A3005 RMK A01 T00250018  RH  096%=      5-min Rain = 0
KBI1 140706Z 21006KT 03/02 A3005 RMK A01 T00250018  RH  096%=      5-min Rain = 0
KBI1 140707Z 22004KT 03/02 A3005 RMK A01 T00250018  RH  096%=      5-min Rain = 0
KBI1 140708Z 22004KT 03/02 A3005 RMK A01 T00250018  RH  096%=      5-min Rain = 0
KBI1 140709Z 22005KT 03/02 A3005 RMK A01 T00250018  RH  096%=      5-min Rain = 0
KBI1 140710Z 21005KT 03/02 A3005 RMK A01 T00250018  RH  096%=      5-min Rain = 0
KBI1 140711Z 21005KT 03/02 A3005 RMK A01 T00250018  RH  096%=      5-min Rain = 0
KBI1 140712Z 21004KT 03/02 A3005 RMK A01 T00250018  RH  096%=      5-min Rain = 0
KBI1 140713Z 20004KT 03/02 A3005 RMK A01 T00250018  RH  096%=      5-min Rain = 0
KBI1 140714Z 19005KT 03/02 A3005 RMK A01 T00250019  RH  096%=      5-min Rain = 0
KBI1 140715Z 19005KT 03/02 A3006 RMK A01 T00250018  RH  096%=      5-min Rain = 0
KBI1 140716Z 19006KT 03/02 A3006 RMK A01 T00250018  RH  096%=      5-min Rain = 0
KBI1 140717Z 19006KT 03/02 A3006 RMK A01 T00250018  RH  096%=      5-min Rain = 0
KBI1 140718Z 19006KT 03/02 A3006 RMK A01 T00250018  RH  096%=      5-min Rain = 0
KBI1 140719Z 19007KT 03/02 A3006 RMK A01 T00250018  RH  096%=      5-min Rain = 0
KBI1 140720Z 19008KT 03/02 A3006 RMK A01 T00250018  RH  096%=      5-min Rain = 0
KBI1 140721Z 20007KT 03/02 A3006 RMK A01 T00250019  RH  096%=      5-min Rain = 0
KBI1 140722Z 20007KT 03/02 A3006 RMK A01 T00250019  RH  096%=      5-min Rain = 0
KBI1 140723Z 20008KT 03/02 A3006 RMK A01 T00250018  RH  096%=      5-min Rain = 0
KBI1 140724Z 20008KT 03/02 A3006 RMK A01 T00250019  RH  096%=      5-min Rain = 0
KBI1 140725Z 20007KT 03/02 A3006 RMK A01 T00250019  RH  096%=      5-min Rain = 0
KBI1 140726Z 19008KT 03/02 A3006 RMK A01 T00250019  RH  096%=      5-min Rain = 0
KBI1 140727Z 20007KT 03/02 A3007 RMK A01 T00250019  RH  096%=      5-min Rain = 0
KBI1 140728Z 19008KT 03/02 A3007 RMK A01 T00250019  RH  096%=      5-min Rain = 0
KBI1 140729Z 20008KT 03/02 A3007 RMK A01 T00250019  RH  096%=      5-min Rain = 0
KBI1 140730Z 20008KT 03/02 A3007 RMK A01 T00250019  RH  096%=      5-min Rain = 0
KBI1 140731Z 19007KT 03/02 A3007 RMK A01 T00250019  RH  096%=      5-min Rain = 0
KBI1 140732Z 19008KT 03/02 A3007 RMK A01 T00250020  RH  096%=      5-min Rain = 0
KBI1 140733Z 19009KT 03/02 A3007 RMK A01 T00250020  RH  096%=      5-min Rain = 0
KBI1 140734Z 19007KT 03/02 A3007 RMK A01 T00250020  RH  096%=      5-min Rain = 0
KBI1 140735Z 18006KT 03/02 A3007 RMK A01 T00250020  RH  096%=      5-min Rain = 0
KBI1 140736Z 18006KT 03/02 A3007 RMK A01 T00250020  RH  096%=      5-min Rain = 0
KBI1 140737Z 19005KT 03/02 A3007 RMK A01 T00250020  RH  096%=      5-min Rain = 0
KBI1 140738Z 19005KT 03/02 A3007 RMK A01 T00250020  RH  096%=      5-min Rain = 0
KBI1 140739Z 19004KT 03/02 A3007 RMK A01 T00250020  RH  096%=      5-min Rain = 0
KBI1 140740Z 19005KT 03/02 A3007 RMK A01 T00250020  RH  096%=      5-min Rain = 0
KBI1 140741Z 19006KT 03/02 A3007 RMK A01 T00250020  RH  096%=      5-min Rain = 0
KBI1 140742Z 19006KT 03/02 A3007 RMK A01 T00250020  RH  096%=      5-min Rain = 0
KBI1 140743Z 19008KT 03/02 A3008 RMK A01 T00260020  RH  096%=      5-min Rain = 0
KBI1 140744Z 19008KT 03/02 A3008 RMK A01 T00260020  RH  096%=      5-min Rain = 0
KBI1 140745Z 19007KT 03/02 A3008 RMK A01 T00260020  RH  096%=      5-min Rain = 0
KBI1 140746Z 18006KT 03/02 A3008 RMK A01 T00260020  RH  096%=      5-min Rain = 0
KBI1 140747Z 19006KT 03/02 A3008 RMK A01 T00250020  RH  096%=      5-min Rain = 0
KBI1 140748Z 20008KT 03/02 A3008 RMK A01 T00260020  RH  096%=      5-min Rain = 0
KBI1 140749Z 20007KT 03/02 A3008 RMK A01 T00260021  RH  096%=      5-min Rain = 0
KBI1 140750Z 19006KT 03/02 A3008 RMK A01 T00260020  RH  096%=      5-min Rain = 0
KBI1 140751Z 18005KT 03/02 A3008 RMK A01 T00260021  RH  096%=      5-min Rain = 0
KBI1 140752Z 18005KT 03/02 A3008 RMK A01 T00260021  RH  096%=      5-min Rain = 0
KBI1 140753Z 18006KT 03/02 A3008 RMK A01 T00260021  RH  097%=      5-min Rain = 0
KBI1 140754Z 18007KT 03/02 A3008 RMK A01 T00260021  RH  097%=      5-min Rain = 0
KBI1 140755Z 18006KT 03/02 A3008 RMK A01 T00260021  RH  096%=      5-min Rain = 0
KBI1 140756Z 18008KT 03/02 A3008 RMK A01 T00260021  RH  097%=      5-min Rain = 0
KBI1 140757Z 18006KT 03/02 A3008 RMK A01 T00260021  RH  097%=      5-min Rain = 0
KBI1 140758Z 18006KT 03/02 A3008 RMK A01 T00260021  RH  097%=      5-min Rain = 0
KBI1 140759Z 18007KT 03/02 A3008 RMK A01 T00260021  RH  097%=      5-min Rain = 0
KBI1 140800Z 20005KT 03/02 A3008 RMK A01 T00260021  RH  097%=      5-min Rain = 0
KBI1 140801Z 20005KT 03/02 A3008 RMK A01 T00260021  RH  097%=      5-min Rain = 0
KBI1 140802Z 19006KT 03/02 A3008 RMK A01 T00260021  RH  097%=      5-min Rain = 0
KBI1 140803Z 19006KT 03/02 A3008 RMK A01 T00260021  RH  097%=      5-min Rain = 0
KBI1 140804Z 19006KT 03/02 A3008 RMK A01 T00260021  RH  097%=      5-min Rain = 0
KBI1 140805Z 19006KT 03/02 A3009 RMK A01 T00260021  RH  097%=      5-min Rain = 0
KBI1 140806Z 19005KT 03/02 A3009 RMK A01 T00250021  RH  097%=      5-min Rain = 0
KBI1 140807Z 18005KT 03/02 A3009 RMK A01 T00260021  RH  097%=      5-min Rain = 0
KBI1 140808Z 18005KT 03/02 A3009 RMK A01 T00260021  RH  097%=      5-min Rain = 0
KBI1 140809Z 18005KT 03/02 A3009 RMK A01 T00260021  RH  097%=      5-min Rain = 0
KBI1 140810Z 19006KT 03/02 A3008 RMK A01 T00260021  RH  097%=      5-min Rain = 0
KBI1 140811Z 20005KT 03/02 A3008 RMK A01 T00260021  RH  097%=      5-min Rain = 0
KBI1 140812Z 20005KT 03/02 A3009 RMK A01 T00250021  RH  097%=      5-min Rain = 0
KBI1 140813Z 20006KT 03/02 A3009 RMK A01 T00260021  RH  097%=      5-min Rain = 0
KBI1 140814Z 20005KT 03/02 A3009 RMK A01 T00260021  RH  097%=      5-min Rain = 0
KBI1 140815Z 19005KT 03/02 A3009 RMK A01 T00250021  RH  097%=      5-min Rain = 0
KBI1 140816Z 19005KT 03/02 A3009 RMK A01 T00260021  RH  097%=      5-min Rain = 0
KBI1 140817Z 18005KT 03/02 A3009 RMK A01 T00260022  RH  097%=      5-min Rain = 0
KBI1 140818Z 19005KT 03/02 A3009 RMK A01 T00260022  RH  097%=      5-min Rain = 0
KBI1 140819Z 19004KT 03/02 A3009 RMK A01 T00260022  RH  097%=      5-min Rain = 0
KBI1 140820Z 19006KT 03/02 A3009 RMK A01 T00260022  RH  097%=      5-min Rain = 0
KBI1 140821Z 19006KT 03/02 A3009 RMK A01 T00260022  RH  097%=      5-min Rain = 0
KBI1 140822Z 19008KT 03/02 A3009 RMK A01 T00260022  RH  097%=      5-min Rain = 0
KBI1 140823Z 19008KT 03/02 A3009 RMK A01 T00260022  RH  097%=      5-min Rain = 0
KBI1 140824Z 19007KT 03/02 A3009 RMK A01 T00260022  RH  097%=      5-min Rain = 0
KBI1 140825Z 18006KT 03/02 A3009 RMK A01 T00260022  RH  097%=      5-min Rain = 0
KBI1 140826Z 17007KT 03/02 A3009 RMK A01 T00260022  RH  097%=      5-min Rain = 0
KBI1 140827Z 18007KT 03/02 A3009 RMK A01 T00260022  RH  097%=      5-min Rain = 0
KBI1 140828Z 19006KT 03/02 A3009 RMK A01 T00260022  RH  097%=      5-min Rain = 0
KBI1 140829Z 20006KT 03/02 A3009 RMK A01 T00260022  RH  097%=      5-min Rain = 0
KBI1 140830Z 21006KT 03/02 A3009 RMK A01 T00260022  RH  097%=      5-min Rain = 0
KBI1 140831Z 20006KT 03/02 A3009 RMK A01 T00260022  RH  097%=      5-min Rain = 0
KBI1 140832Z 19007KT 03/02 A3009 RMK A01 T00260022  RH  097%=      5-min Rain = 0
KBI1 140833Z 19006KT 03/02 A3009 RMK A01 T00260021  RH  097%=      5-min Rain = 0
KBI1 140834Z 18004KT 03/02 A3009 RMK A01 T00260022  RH  097%=      5-min Rain = 0
KBI1 140835Z 19005KT 03/02 A3009 RMK A01 T00260022  RH  097%=      5-min Rain = 0
KBI1 140836Z 19006KT 03/02 A3009 RMK A01 T00260022  RH  097%=      5-min Rain = 0
KBI1 140837Z 20007KT 03/02 A3009 RMK A01 T00260022  RH  097%=      5-min Rain = 0
KBI1 140838Z 19008KT 03/02 A3009 RMK A01 T00250022  RH  097%=      5-min Rain = 0
KBI1 140839Z 19006KT 03/02 A3009 RMK A01 T00250022  RH  097%=      5-min Rain = 0
KBI1 140840Z 18006KT 03/02 A3009 RMK A01 T00260022  RH  097%=      5-min Rain = 0
KBI1 140841Z 19006KT 03/02 A3009 RMK A01 T00260022  RH  097%=      5-min Rain = 0
KBI1 140842Z 18005KT 03/02 A3009 RMK A01 T00260022  RH  097%=      5-min Rain = 0
KBI1 140843Z 18007KT 03/02 A3009 RMK A01 T00260022  RH  097%=      5-min Rain = 0
KBI1 140844Z 19007KT 03/02 A3009 RMK A01 T00260022  RH  097%=      5-min Rain = 0
KBI1 140845Z 19008KT 03/02 A3009 RMK A01 T00250022  RH  097%=      5-min Rain = 0
KBI1 140846Z 20007KT 03/02 A3009 RMK A01 T00250022  RH  097%=      5-min Rain = 0
KBI1 140847Z 20007KT 03/02 A301 RMK A01 T00250021  RH  097%=      5-min Rain = 0
KBI1 140848Z 20006KT 03/02 A301 RMK A01 T00250022  RH  098%=      5-min Rain = 0
KBI1 140849Z 20006KT 03/02 A301 RMK A01 T00250022  RH  098%=      5-min Rain = 0
KBI1 140850Z 19006KT 03/02 A301 RMK A01 T00250021  RH  098%=      5-min Rain = 0
KBI1 140851Z 20007KT 03/02 A301 RMK A01 T00250022  RH  098%=      5-min Rain = 0
KBI1 140852Z 18007KT 03/02 A3009 RMK A01 T00250021  RH  098%=      5-min Rain = 0
KBI1 140853Z 19005KT 03/02 A3009 RMK A01 T00250022  RH  098%=      5-min Rain = 0
KBI1 140854Z 20006KT 03/02 A3009 RMK A01 T00250021  RH  098%=      5-min Rain = 0
KBI1 140855Z 22005KT 03/02 A3009 RMK A01 T00250022  RH  098%=      5-min Rain = 0
KBI1 140856Z 22005KT 03/02 A3009 RMK A01 T00250022  RH  098%=      5-min Rain = 0
KBI1 140857Z 21004KT 03/02 A3009 RMK A01 T00250022  RH  098%=      5-min Rain = 0
KBI1 140858Z 20003KT 03/02 A301 RMK A01 T00250022  RH  098%=      5-min Rain = 0
KBI1 140859Z 20004KT 03/02 A301 RMK A01 T00250022  RH  098%=      5-min Rain = 0
KBI1 140900Z 20005KT 03/02 A301 RMK A01 T00250022  RH  098%=      5-min Rain = 0
KBI1 140901Z 20004KT 03/02 A301 RMK A01 T00260022  RH  098%=      5-min Rain = 0
KBI1 140902Z 18003KT 03/02 A301 RMK A01 T00260022  RH  098%=      5-min Rain = 0
KBI1 140903Z 16002KT 03/02 A301 RMK A01 T00260023  RH  098%=      5-min Rain = 0
KBI1 140904Z 17002KT 03/02 A301 RMK A01 T00260023  RH  098%=      5-min Rain = 0
KBI1 140905Z 19004KT 03/02 A301 RMK A01 T00260023  RH  098%=      5-min Rain = 0
KBI1 140906Z 19003KT 03/02 A301 RMK A01 T00260023  RH  098%=      5-min Rain = 0
KBI1 140907Z 18003KT 03/02 A301 RMK A01 T00260023  RH  098%=      5-min Rain = 0
KBI1 140908Z 20003KT 03/02 A3009 RMK A01 T00260023  RH  098%=      5-min Rain = 0
KBI1 140909Z 20003KT 03/02 A3009 RMK A01 T00260023  RH  098%=      5-min Rain = 0
KBI1 140910Z 19003KT 03/02 A3009 RMK A01 T00260023  RH  098%=      5-min Rain = 0
KBI1 140911Z 20005KT 03/02 A3009 RMK A01 T00260023  RH  098%=      5-min Rain = 0
KBI1 140912Z 21003KT 03/02 A301 RMK A01 T00260023  RH  098%=      5-min Rain = 0
KBI1 140913Z 20004KT 03/02 A301 RMK A01 T00250022  RH  098%=      5-min Rain = 0
KBI1 140914Z 20004KT 03/02 A301 RMK A01 T00250022  RH  098%=      5-min Rain = 0
KBI1 140915Z 19004KT 03/02 A301 RMK A01 T00250022  RH  098%=      5-min Rain = 0
KBI1 140916Z 19004KT 03/02 A301 RMK A01 T00250022  RH  098%=      5-min Rain = 0
KBI1 140917Z 19005KT 03/02 A301 RMK A01 T00250022  RH  098%=      5-min Rain = 0
KBI1 140918Z 19005KT 03/02 A301 RMK A01 T00250022  RH  098%=      5-min Rain = 0
KBI1 140919Z 19004KT 03/02 A301 RMK A01 T00250022  RH  098%=      5-min Rain = 0
KBI1 140920Z 19004KT 02/02 A301 RMK A01 T00240021  RH  098%=      5-min Rain = 0
KBI1 140921Z 21003KT 03/02 A301 RMK A01 T00250022  RH  098%=      5-min Rain = 0
KBI1 140922Z 20003KT 03/02 A301 RMK A01 T00250022  RH  098%=      5-min Rain = 0
KBI1 140923Z 20004KT 03/02 A301 RMK A01 T00250022  RH  098%=      5-min Rain = 0
KBI1 140924Z 19003KT 03/02 A301 RMK A01 T00250022  RH  098%=      5-min Rain = 0
KBI1 140925Z 20003KT 03/02 A301 RMK A01 T00250022  RH  098%=      5-min Rain = 0
KBI1 140926Z 20003KT 03/02 A301 RMK A01 T00250022  RH  098%=      5-min Rain = 0
KBI1 140927Z 23004KT 03/02 A301 RMK A01 T00250022  RH  098%=      5-min Rain = 0
KBI1 140928Z 24004KT 03/02 A301 RMK A01 T00250022  RH  098%=      5-min Rain = 0
KBI1 140929Z 24004KT 03/02 A301 RMK A01 T00250022  RH  098%=      5-min Rain = 0
KBI1 140930Z 24004KT 03/02 A301 RMK A01 T00250022  RH  098%=      5-min Rain = 0
KBI1 140931Z 24003KT 03/02 A3011 RMK A01 T00250022  RH  098%=      5-min Rain = 0
KBI1 140932Z 24004KT 03/02 A3011 RMK A01 T00250022  RH  098%=      5-min Rain = 0
KBI1 140933Z 21004KT 03/02 A3011 RMK A01 T00250022  RH  098%=      5-min Rain = 0
KBI1 140934Z 21004KT 03/02 A3011 RMK A01 T00250022  RH  098%=      5-min Rain = 0
KBI1 140935Z 20003KT 03/02 A3011 RMK A01 T00250023  RH  098%=      5-min Rain = 0
KBI1 140936Z 20004KT 02/02 A3011 RMK A01 T00240022  RH  098%=      5-min Rain = 0
KBI1 140937Z 21004KT 02/02 A3011 RMK A01 T00240022  RH  098%=      5-min Rain = 0
KBI1 140938Z 22003KT 02/02 A3011 RMK A01 T00240021  RH  098%=      5-min Rain = 0
KBI1 140939Z 22002KT 02/02 A3011 RMK A01 T00240021  RH  098%=      5-min Rain = 0
KBI1 140940Z 22002KT 02/02 A3011 RMK A01 T00230021  RH  098%=      5-min Rain = 0
KBI1 140941Z 21003KT 02/02 A3011 RMK A01 T00230021  RH  098%=      5-min Rain = 0
KBI1 140942Z 20002KT 02/02 A3011 RMK A01 T00230021  RH  098%=      5-min Rain = 0
KBI1 140943Z 18002KT 02/02 A3012 RMK A01 T00240021  RH  098%=      5-min Rain = 0
KBI1 140944Z 17002KT 02/02 A3012 RMK A01 T00240021  RH  098%=      5-min Rain = 0
KBI1 140945Z 16002KT 02/02 A3012 RMK A01 T00240021  RH  098%=      5-min Rain = 0
KBI1 140946Z 18003KT 02/02 A3012 RMK A01 T00240021  RH  098%=      5-min Rain = 0
KBI1 140947Z 19003KT 02/02 A3012 RMK A01 T00240021  RH  098%=      5-min Rain = 0
KBI1 140948Z 18003KT 02/02 A3012 RMK A01 T00240021  RH  098%=      5-min Rain = 0
KBI1 140949Z 18002KT 02/02 A3012 RMK A01 T00240022  RH  098%=      5-min Rain = 0
KBI1 140950Z 18003KT 02/02 A3012 RMK A01 T00240022  RH  098%=      5-min Rain = 0
KBI1 140951Z 18003KT 02/02 A3012 RMK A01 T00240022  RH  098%=      5-min Rain = 0
KBI1 140952Z 19003KT 02/02 A3012 RMK A01 T00240022  RH  098%=      5-min Rain = 0
KBI1 140953Z 20003KT 02/02 A3012 RMK A01 T00240022  RH  098%=      5-min Rain = 0
KBI1 140954Z 20004KT 03/02 A3012 RMK A01 T00250023  RH  098%=      5-min Rain = 0
KBI1 140955Z 22003KT 03/02 A3012 RMK A01 T00250022  RH  098%=      5-min Rain = 0
KBI1 140956Z 22004KT 03/02 A3012 RMK A01 T00250022  RH  098%=      5-min Rain = 0
KBI1 140957Z 23004KT 02/02 A3012 RMK A01 T00240022  RH  098%=      5-min Rain = 0
KBI1 140958Z 23003KT 02/02 A3012 RMK A01 T00230021  RH  098%=      5-min Rain = 0
KBI1 140959Z 24002KT 02/02 A3012 RMK A01 T00230021  RH  098%=      5-min Rain = 0
KBI1 141000Z 24002KT 02/02 A3012 RMK A01 T00230021  RH  098%=      5-min Rain = 0
KBI1 141001Z 24001KT 02/02 A3012 RMK A01 T00230020  RH  098%=      5-min Rain = 0
KBI1 141002Z 00000KT 02/02 A3012 RMK A01 T00230020  RH  098%=      5-min Rain = 0
KBI1 141003Z 00000KT 02/02 A3012 RMK A01 T00230021  RH  098%=      5-min Rain = 0
KBI1 141004Z 15001KT 02/02 A3012 RMK A01 T00230021  RH  098%=      5-min Rain = 0
KBI1 141005Z 14001KT 02/02 A3013 RMK A01 T00230021  RH  098%=      5-min Rain = 0
KBI1 141006Z 14001KT 02/02 A3013 RMK A01 T00230021  RH  098%=      5-min Rain = 0
KBI1 141007Z 13001KT 02/02 A3013 RMK A01 T00240021  RH  099%=      5-min Rain = 0
KBI1 141008Z 13001KT 02/02 A3013 RMK A01 T00240022  RH  099%=      5-min Rain = 0
KBI1 141009Z 00000KT 02/02 A3013 RMK A01 T00240022  RH  099%=      5-min Rain = 0
KBI1 141010Z 00000KT 02/02 A3013 RMK A01 T00240022  RH  099%=      5-min Rain = 0
KBI1 141011Z 04000KT 02/02 A3013 RMK A01 T00240022  RH  099%=      5-min Rain = 0
KBI1 141012Z 00000KT 02/02 A3013 RMK A01 T00240021  RH  099%=      5-min Rain = 0
KBI1 141013Z 00000KT 02/02 A3013 RMK A01 T00240022  RH  099%=      5-min Rain = 0
KBI1 141014Z 00000KT 02/02 A3013 RMK A01 T00240022  RH  099%=      5-min Rain = 0
KBI1 141015Z 01001KT 02/02 A3013 RMK A01 T00240022  RH  099%=      5-min Rain = 0
KBI1 141016Z 01001KT 02/02 A3013 RMK A01 T00240022  RH  099%=      5-min Rain = 0
KBI1 141017Z 01001KT 02/02 A3013 RMK A01 T00240022  RH  099%=      5-min Rain = 0
KBI1 141018Z 01001KT 02/02 A3013 RMK A01 T00240022  RH  099%=      5-min Rain = 0
KBI1 141019Z 02001KT 02/02 A3013 RMK A01 T00240022  RH  099%=      5-min Rain = 0
KBI1 141020Z 02001KT 02/02 A3013 RMK A01 T00240022  RH  099%=      5-min Rain = 0
KBI1 141021Z 02001KT 02/02 A3013 RMK A01 T00240022  RH  099%=      5-min Rain = 0
KBI1 141022Z 02002KT 02/02 A3013 RMK A01 T00240022  RH  099%=      5-min Rain = 0
KBI1 141023Z 01002KT 02/02 A3013 RMK A01 T00240022  RH  099%=      5-min Rain = 0
KBI1 141024Z 02002KT 02/02 A3013 RMK A01 T00240022  RH  099%=      5-min Rain = 0
KBI1 141025Z 02003KT 02/02 A3013 RMK A01 T00240022  RH  099%=      5-min Rain = 0
KBI1 141026Z 03002KT 02/02 A3013 RMK A01 T00240022  RH  099%=      5-min Rain = 0
KBI1 141027Z 04002KT 02/02 A3013 RMK A01 T00230021  RH  099%=      5-min Rain = 0
KBI1 141028Z 06001KT 02/02 A3013 RMK A01 T00230021  RH  099%=      5-min Rain = 0
KBI1 141029Z 07001KT 02/02 A3013 RMK A01 T00230021  RH  099%=      5-min Rain = 0
KBI1 141030Z 04001KT 02/02 A3013 RMK A01 T00230021  RH  099%=      5-min Rain = 0
KBI1 141031Z 02003KT 02/02 A3013 RMK A01 T00230021  RH  099%=      5-min Rain = 0
KBI1 141032Z 02004KT 02/02 A3013 RMK A01 T00230021  RH  099%=      5-min Rain = 0
KBI1 141033Z 02003KT 02/02 A3013 RMK A01 T00230021  RH  099%=      5-min Rain = 0
KBI1 141034Z 35003KT 02/02 A3013 RMK A01 T00230021  RH  099%=      5-min Rain = 0
KBI1 141035Z 34004KT 02/02 A3013 RMK A01 T00230022  RH  099%=      5-min Rain = 0
KBI1 141036Z 34004KT 02/02 A3013 RMK A01 T00230022  RH  099%=      5-min Rain = 0
KBI1 141037Z 34005KT 02/02 A3013 RMK A01 T00240022  RH  099%=      5-min Rain = 0
KBI1 141038Z 34005KT 02/02 A3013 RMK A01 T00240022  RH  099%=      5-min Rain = 0
KBI1 141039Z 35005KT 02/02 A3013 RMK A01 T00240022  RH  099%=      5-min Rain = 0
KBI1 141040Z 35005KT 02/02 A3013 RMK A01 T00230021  RH  099%=      5-min Rain = 0
KBI1 141041Z 34006KT 02/02 A3013 RMK A01 T00230021  RH  099%=      5-min Rain = 0
KBI1 141042Z 34006KT 02/02 A3013 RMK A01 T00220021  RH  099%=      5-min Rain = 0
KBI1 141043Z 35006KT 02/02 A3013 RMK A01 T00220021  RH  099%=      5-min Rain = 0
KBI1 141044Z 34005KT 02/02 A3013 RMK A01 T00230021  RH  099%=      5-min Rain = 0
KBI1 141045Z 34003KT 02/02 A3013 RMK A01 T00220021  RH  099%=      5-min Rain = 0
KBI1 141046Z 34004KT 02/02 A3013 RMK A01 T00220021  RH  099%=      5-min Rain = 0
KBI1 141047Z 33004KT 02/02 A3013 RMK A01 T00230021  RH  099%=      5-min Rain = 0
KBI1 141048Z 33004KT 02/02 A3013 RMK A01 T00220021  RH  099%=      5-min Rain = 0
KBI1 141049Z 32004KT 02/02 A3013 RMK A01 T00220020  RH  099%=      5-min Rain = 0
KBI1 141050Z 33004KT 02/02 A3013 RMK A01 T00210020  RH  099%=      5-min Rain = 0
KBI1 141051Z 33005KT 02/02 A3013 RMK A01 T00220020  RH  099%=      5-min Rain = 0
KBI1 141052Z 33006KT 02/02 A3013 RMK A01 T00210020  RH  099%=      5-min Rain = 0
KBI1 141053Z 33005KT 02/02 A3013 RMK A01 T00210019  RH  099%=      5-min Rain = 0
KBI1 141054Z 34005KT 02/02 A3013 RMK A01 T00210020  RH  099%=      5-min Rain = 0
KBI1 141055Z 34005KT 02/02 A3013 RMK A01 T00210020  RH  099%=      5-min Rain = 0
KBI1 141056Z 34004KT 02/02 A3013 RMK A01 T00210020  RH  099%=      5-min Rain = 0
KBI1 141057Z 33004KT 02/02 A3013 RMK A01 T00210020  RH  099%=      5-min Rain = 0
KBI1 141058Z 34005KT 02/02 A3013 RMK A01 T00210020  RH  099%=      5-min Rain = 0
KBI1 141059Z 33005KT 02/02 A3013 RMK A01 T00210020  RH  099%=      5-min Rain = 0
KBI1 141100Z 33005KT 02/02 A3013 RMK A01 T00210020  RH  099%=      5-min Rain = 0
KBI1 141101Z 34004KT 02/02 A3013 RMK A01 T00210020  RH  099%=      5-min Rain = 0
KBI1 141102Z 34007KT 02/02 A3013 RMK A01 T00220020  RH  099%=      5-min Rain = 0
KBI1 141103Z 34006KT 02/02 A3013 RMK A01 T00210020  RH  099%=      5-min Rain = 0
KBI1 141104Z 33006KT 02/02 A3013 RMK A01 T00210019  RH  099%=      5-min Rain = 0
KBI1 141105Z 34007KT 02/02 A3013 RMK A01 T00210020  RH  099%=      5-min Rain = 0
KBI1 141106Z 34006KT 02/02 A3013 RMK A01 T00210020  RH  099%=      5-min Rain = 0
KBI1 141107Z 34006KT 02/02 A3013 RMK A01 T00210020  RH  099%=      5-min Rain = 0
KBI1 141108Z 34006KT 02/02 A3013 RMK A01 T00210020  RH  099%=      5-min Rain = 0
KBI1 141109Z 34006KT 02/02 A3013 RMK A01 T00210020  RH  099%=      5-min Rain = 0
KBI1 141110Z 34004KT 02/02 A3013 RMK A01 T00210020  RH  099%=      5-min Rain = 0
KBI1 141111Z 34005KT 02/02 A3013 RMK A01 T00220021  RH  099%=      5-min Rain = 0
KBI1 141112Z 33005KT 02/02 A3013 RMK A01 T00220021  RH  099%=      5-min Rain = 0
KBI1 141113Z 33005KT 02/02 A3013 RMK A01 T00220021  RH  099%=      5-min Rain = 0
KBI1 141114Z 34006KT 02/02 A3013 RMK A01 T00220021  RH  099%=      5-min Rain = 0
KBI1 141115Z 35006KT 02/02 A3013 RMK A01 T00220021  RH  099%=      5-min Rain = 0
KBI1 141116Z 34006KT 02/02 A3013 RMK A01 T00230021  RH  099%=      5-min Rain = 0
KBI1 141117Z 35006KT 02/02 A3013 RMK A01 T00220021  RH  099%=      5-min Rain = 0
KBI1 141118Z 35007KT 02/02 A3013 RMK A01 T00230021  RH  099%=      5-min Rain = 0
KBI1 141119Z 35006KT 02/02 A3013 RMK A01 T00220021  RH  099%=      5-min Rain = 0
KBI1 141120Z 34006KT 02/02 A3013 RMK A01 T00220020  RH  099%=      5-min Rain = 0
KBI1 141121Z 34006KT 02/02 A3013 RMK A01 T00220021  RH  099%=      5-min Rain = 0
KBI1 141122Z 34006KT 02/02 A3013 RMK A01 T00210020  RH  099%=      5-min Rain = 0
KBI1 141123Z 34008KT 02/02 A3013 RMK A01 T00220020  RH  099%=      5-min Rain = 0
KBI1 141124Z 34008KT 02/02 A3013 RMK A01 T00210020  RH  099%=      5-min Rain = 0
KBI1 141125Z 34008KT 02/02 A3013 RMK A01 T00210020  RH  099%=      5-min Rain = 0
KBI1 141126Z 35008KT 02/02 A3013 RMK A01 T00210020  RH  099%=      5-min Rain = 0
KBI1 141127Z 34007KT 02/02 A3013 RMK A01 T00210020  RH  099%=      5-min Rain = 0
KBI1 141128Z 33007KT 02/02 A3013 RMK A01 T00210020  RH  099%=      5-min Rain = 0
KBI1 141129Z 34009KT 02/02 A3013 RMK A01 T00210020  RH  099%=      5-min Rain = 0
KBI1 141130Z 33008KT 02/02 A3013 RMK A01 T00210020  RH  099%=      5-min Rain = 0
KBI1 141131Z 34007KT 02/02 A3014 RMK A01 T00210020  RH  099%=      5-min Rain = 0
KBI1 141132Z 34006KT 02/02 A3014 RMK A01 T00210020  RH  099%=      5-min Rain = 0
KBI1 141133Z 35006KT 02/02 A3013 RMK A01 T00210020  RH  099%=      5-min Rain = 0
KBI1 141134Z 35007KT 02/02 A3013 RMK A01 T00210020  RH  099%=      5-min Rain = 0
KBI1 141135Z 34009KT 02/02 A3013 RMK A01 T00210020  RH  099%=      5-min Rain = 0
KBI1 141136Z 34007KT 02/02 A3013 RMK A01 T00210020  RH  099%=      5-min Rain = 0
KBI1 141137Z 35009KT 02/02 A3013 RMK A01 T00210020  RH  099%=      5-min Rain = 0
KBI1 141138Z 34009KT 02/02 A3013 RMK A01 T00220020  RH  099%=      5-min Rain = 0
KBI1 141139Z 34009KT 02/02 A3013 RMK A01 T00210020  RH  099%=      5-min Rain = 0
KBI1 141140Z 34010KT 02/02 A3013 RMK A01 T00220020  RH  099%=      5-min Rain = 0
KBI1 141141Z 33009KT 02/02 A3013 RMK A01 T00210020  RH  099%=      5-min Rain = 0
KBI1 141142Z 33010KT 02/02 A3014 RMK A01 T00210020  RH  099%=      5-min Rain = 0
KBI1 141143Z 33008KT 02/02 A3014 RMK A01 T00220020  RH  099%=      5-min Rain = 0
KBI1 141144Z 34009KT 02/02 A3014 RMK A01 T00220020  RH  099%=      5-min Rain = 0
KBI1 141145Z 34009KT 02/02 A3014 RMK A01 T00210020  RH  099%=      5-min Rain = 0
KBI1 141146Z 35007KT 02/02 A3014 RMK A01 T00210020  RH  099%=      5-min Rain = 0
KBI1 141147Z 35008KT 02/02 A3014 RMK A01 T00210020  RH  099%=      5-min Rain = 0
KBI1 141148Z 35007KT 02/02 A3014 RMK A01 T00200019  RH  099%=      5-min Rain = 0
KBI1 141149Z 35008KT 02/02 A3014 RMK A01 T00200019  RH  099%=      5-min Rain = 0
KBI1 141150Z 36007KT 02/02 A3014 RMK A01 T00200019  RH  099%=      5-min Rain = 0
KBI1 141151Z 36006KT 02/02 A3014 RMK A01 T00190018  RH  099%=      5-min Rain = 0
KBI1 141152Z 35006KT 02/02 A3014 RMK A01 T00200018  RH  099%=      5-min Rain = 0
KBI1 141153Z 36007KT 02/02 A3015 RMK A01 T00200019  RH  099%=      5-min Rain = 0
KBI1 141154Z 35006KT 02/02 A3015 RMK A01 T00200019  RH  099%=      5-min Rain = 0
KBI1 141155Z 36005KT 02/02 A3015 RMK A01 T00200019  RH  099%=      5-min Rain = 0
KBI1 141156Z 35005KT 02/02 A3015 RMK A01 T00190018  RH  099%=      5-min Rain = 0
KBI1 141157Z 36007KT 02/02 A3015 RMK A01 T00200019  RH  099%=      5-min Rain = 0
KBI1 141158Z 35006KT 02/02 A3015 RMK A01 T00200019  RH  099%=      5-min Rain = 0
KBI1 141159Z 35007KT 02/02 A3015 RMK A01 T00190018  RH  099%=      5-min Rain = 0
KBI1 141200Z 35007KT 02/02 A3015 RMK A01 T00190018  RH  099%=      5-min Rain = 0
KBI1 141201Z 35007KT 02/02 A3015 RMK A01 T00190018  RH  099%=      5-min Rain = 0
KBI1 141202Z 34007KT 02/02 A3015 RMK A01 T00190018  RH  099%=      5-min Rain = 0
KBI1 141203Z 33007KT 02/02 A3015 RMK A01 T00190018  RH  099%=      5-min Rain = 0
KBI1 141204Z 33007KT 02/02 A3015 RMK A01 T00190018  RH  099%=      5-min Rain = 0
KBI1 141205Z 33007KT 02/02 A3015 RMK A01 T00180017  RH  099%=      5-min Rain = 0
KBI1 141206Z 33007KT 02/02 A3015 RMK A01 T00170016  RH  099%=      5-min Rain = 0
KBI1 141207Z 33007KT 02/02 A3015 RMK A01 T00170016  RH  099%=      5-min Rain = 0
KBI1 141208Z 33006KT 02/02 A3015 RMK A01 T00170016  RH  099%=      5-min Rain = 0
KBI1 141209Z 34006KT 02/02 A3015 RMK A01 T00170016  RH  099%=      5-min Rain = 0
KBI1 141210Z 34007KT 02/02 A3016 RMK A01 T00170016  RH  099%=      5-min Rain = 0
KBI1 141211Z 35006KT 02/02 A3016 RMK A01 T00170016  RH  099%=      5-min Rain = 0
KBI1 141212Z 34006KT 02/02 A3016 RMK A01 T00170016  RH  099%=      5-min Rain = 0
KBI1 141213Z 34005KT 02/02 A3016 RMK A01 T00170016  RH  099%=      5-min Rain = 0
KBI1 141214Z 35006KT 02/02 A3016 RMK A01 T00170017  RH  099%=      5-min Rain = 0
KBI1 141215Z 33006KT 02/02 A3016 RMK A01 T00170017  RH  099%=      5-min Rain = 0
KBI1 141216Z 33005KT 02/02 A3016 RMK A01 T00170016  RH  099%=      5-min Rain = 0
KBI1 141217Z 34005KT 02/02 A3016 RMK A01 T00170016  RH  099%=      5-min Rain = 0
KBI1 141218Z 33005KT 02/02 A3016 RMK A01 T00170016  RH  099%=      5-min Rain = 0
KBI1 141219Z 33005KT 02/02 A3016 RMK A01 T00170016  RH  099%=      5-min Rain = 0
KBI1 141220Z 33005KT 02/02 A3017 RMK A01 T00170016  RH  099%=      5-min Rain = 0
KBI1 141221Z 33005KT 02/02 A3017 RMK A01 T00170016  RH  099%=      5-min Rain = 0
KBI1 141222Z 32004KT 02/02 A3017 RMK A01 T00180017  RH  099%=      5-min Rain = 0
KBI1 141223Z 33005KT 02/02 A3017 RMK A01 T00170016  RH  099%=      5-min Rain = 0
KBI1 141224Z 33005KT 02/02 A3017 RMK A01 T00170017  RH  099%=      5-min Rain = 0
KBI1 141225Z 33006KT 02/02 A3017 RMK A01 T00170017  RH  099%=      5-min Rain = 0
KBI1 141226Z 33006KT 02/02 A3017 RMK A01 T00170016  RH  099%=      5-min Rain = 0
KBI1 141227Z 33006KT 02/02 A3017 RMK A01 T00170016  RH  099%=      5-min Rain = 0
KBI1 141228Z 34005KT 02/02 A3017 RMK A01 T00170017  RH  099%=      5-min Rain = 0
KBI1 141229Z 34006KT 02/02 A3017 RMK A01 T00170016  RH  099%=      5-min Rain = 0
KBI1 141230Z 34004KT 02/02 A3017 RMK A01 T00170016  RH  099%=      5-min Rain = 0
KBI1 141231Z 34005KT 02/02 A3017 RMK A01 T00170016  RH  099%=      5-min Rain = 0
KBI1 141232Z 33006KT 02/02 A3017 RMK A01 T00160016  RH  099%=      5-min Rain = 0
KBI1 141233Z 34005KT 02/02 A3017 RMK A01 T00160015  RH  099%=      5-min Rain = 0
KBI1 141234Z 34006KT 02/02 A3017 RMK A01 T00160015  RH  099%=      5-min Rain = 0
KBI1 141235Z 34005KT 02/01 A3017 RMK A01 T00150014  RH  099%=      5-min Rain = 0
KBI1 141236Z 34004KT 02/01 A3017 RMK A01 T00150014  RH  099%=      5-min Rain = 0
KBI1 141237Z 34005KT 02/01 A3017 RMK A01 T00150014  RH  099%=      5-min Rain = 0
KBI1 141238Z 34004KT 02/01 A3017 RMK A01 T00150014  RH  099%=      5-min Rain = 0
KBI1 141239Z 34004KT 02/01 A3018 RMK A01 T00150014  RH  099%=      5-min Rain = 0
KBI1 141240Z 34005KT 02/01 A3018 RMK A01 T00150014  RH  099%=      5-min Rain = 0
KBI1 141241Z 34005KT 02/01 A3018 RMK A01 T00150014  RH  099%=      5-min Rain = 0
KBI1 141242Z 34004KT 02/01 A3018 RMK A01 T00150014  RH  099%=      5-min Rain = 0
KBI1 141243Z 34005KT 02/01 A3018 RMK A01 T00150014  RH  099%=      5-min Rain = 0
KBI1 141244Z 34005KT 02/01 A3018 RMK A01 T00150014  RH  099%=      5-min Rain = 0
KBI1 141245Z 34005KT 02/01 A3018 RMK A01 T00150014  RH  099%=      5-min Rain = 0
KBI1 141246Z 34004KT 02/01 A3018 RMK A01 T00150014  RH  099%=      5-min Rain = 0
KBI1 141247Z 34005KT 02/01 A3018 RMK A01 T00150014  RH  099%=      5-min Rain = 0
KBI1 141248Z 33005KT 02/01 A3018 RMK A01 T00150014  RH  100%=      5-min Rain = 0
KBI1 141249Z 34005KT 02/01 A3018 RMK A01 T00150014  RH  099%=      5-min Rain = 0
KBI1 141250Z 33007KT 02/01 A3018 RMK A01 T00150014  RH  099%=      5-min Rain = 0
KBI1 141251Z 33007KT 01/01 A3018 RMK A01 T00140013  RH  099%=      5-min Rain = 0
KBI1 141252Z 34006KT 01/01 A3018 RMK A01 T00130012  RH  099%=      5-min Rain = 0
KBI1 141253Z 33005KT 01/01 A3018 RMK A01 T00130012  RH  099%=      5-min Rain = 0
KBI1 141254Z 34004KT 01/01 A3018 RMK A01 T00130012  RH  099%=      5-min Rain = 0
KBI1 141255Z 34005KT 01/01 A3018 RMK A01 T00130012  RH  099%=      5-min Rain = 0
KBI1 141256Z 33005KT 01/01 A3019 RMK A01 T00130012  RH  099%=      5-min Rain = 0
KBI1 141257Z 33005KT 01/01 A3019 RMK A01 T00130012  RH  100%=      5-min Rain = 0
KBI1 141258Z 34005KT 01/01 A3019 RMK A01 T00130012  RH  099%=      5-min Rain = 0
KBI1 141259Z 34006KT 01/01 A3019 RMK A01 T00130012  RH  099%=      5-min Rain = 0
KBI1 141300Z 34006KT 01/01 A3019 RMK A01 T00130012  RH  099%=      5-min Rain = 0
KBI1 141301Z 34006KT 01/01 A3019 RMK A01 T00120012  RH  099%=      5-min Rain = 0
KBI1 141302Z 34005KT 01/01 A3019 RMK A01 T00120012  RH  100%=      5-min Rain = 0
KBI1 141303Z 34005KT 01/01 A3019 RMK A01 T00120012  RH  100%=      5-min Rain = 0
KBI1 141304Z 34005KT 01/01 A3019 RMK A01 T00120011  RH  099%=      5-min Rain = 0
KBI1 141305Z 34006KT 01/01 A3019 RMK A01 T00120011  RH  100%=      5-min Rain = 0
KBI1 141306Z 34006KT 01/01 A3019 RMK A01 T00120011  RH  100%=      5-min Rain = 0
KBI1 141307Z 34005KT 01/01 A3019 RMK A01 T00120011  RH  100%=      5-min Rain = 0
KBI1 141308Z 34004KT 01/01 A3019 RMK A01 T00110011  RH  100%=      5-min Rain = 0
KBI1 141309Z 34004KT 01/01 A3019 RMK A01 T00110011  RH  100%=      5-min Rain = 0
KBI1 141310Z 34004KT 01/01 A3019 RMK A01 T00110011  RH  100%=      5-min Rain = 0
KBI1 141311Z 34005KT 01/01 A3019 RMK A01 T00110011  RH  100%=      5-min Rain = 0
KBI1 141312Z 35005KT 01/01 A3019 RMK A01 T00110011  RH  100%=      5-min Rain = 0
KBI1 141313Z 35005KT 01/01 A3019 RMK A01 T00110011  RH  100%=      5-min Rain = 0
KBI1 141314Z 35005KT 01/01 A302 RMK A01 T00110011  RH  100%=      5-min Rain = 0
KBI1 141315Z 33004KT 01/01 A302 RMK A01 T00110011  RH  100%=      5-min Rain = 0
KBI1 141316Z 34004KT 01/01 A302 RMK A01 T00110010  RH  100%=      5-min Rain = 0
KBI1 141317Z 34005KT 01/01 A302 RMK A01 T00110011  RH  100%=      5-min Rain = 0
KBI1 141318Z 34005KT 01/01 A302 RMK A01 T00110011  RH  100%=      5-min Rain = 0
KBI1 141319Z 34004KT 01/01 A302 RMK A01 T00110011  RH  100%=      5-min Rain = 0
KBI1 141320Z 34005KT 01/01 A302 RMK A01 T00110011  RH  100%=      5-min Rain = 0
KBI1 141321Z 35005KT 01/01 A302 RMK A01 T00110011  RH  100%=      5-min Rain = 0
KBI1 141322Z 34004KT 01/01 A302 RMK A01 T00110011  RH  100%=      5-min Rain = 0
KBI1 141323Z 33004KT 01/01 A302 RMK A01 T00110010  RH  100%=      5-min Rain = 0
KBI1 141324Z 33005KT 01/01 A302 RMK A01 T00110011  RH  100%=      5-min Rain = 0
KBI1 141325Z 34005KT 01/01 A302 RMK A01 T00110010  RH  100%=      5-min Rain = 0
KBI1 141326Z 34006KT 01/01 A302 RMK A01 T00100010  RH  100%=      5-min Rain = 0
KBI1 141327Z 34005KT 01/01 A302 RMK A01 T00110010  RH  100%=      5-min Rain = 0
KBI1 141328Z 34005KT 01/01 A302 RMK A01 T00100010  RH  100%=      5-min Rain = 0
KBI1 141329Z 34004KT 01/01 A302 RMK A01 T00100010  RH  100%=      5-min Rain = 0
KBI1 141330Z 34005KT 01/01 A302 RMK A01 T00110010  RH  100%=      5-min Rain = 0
KBI1 141331Z 34005KT 01/01 A302 RMK A01 T00110010  RH  100%=      5-min Rain = 0
KBI1 141332Z 34005KT 01/01 A302 RMK A01 T00110010  RH  100%=      5-min Rain = 0
KBI1 141333Z 34005KT 01/01 A302 RMK A01 T00110010  RH  100%=      5-min Rain = 0
KBI1 141334Z 34005KT 01/01 A3021 RMK A01 T00110011  RH  100%=      5-min Rain = 0
KBI1 141335Z 34005KT 01/01 A3021 RMK A01 T00110011  RH  100%=      5-min Rain = 0
KBI1 141336Z 35005KT 01/01 A3021 RMK A01 T00110011  RH  100%=      5-min Rain = 0
KBI1 141337Z 35006KT 01/01 A3021 RMK A01 T00110011  RH  100%=      5-min Rain = 0
KBI1 141338Z 35005KT 01/01 A3021 RMK A01 T00110010  RH  100%=      5-min Rain = 0
KBI1 141339Z 35005KT 01/01 A3021 RMK A01 T00110010  RH  100%=      5-min Rain = 0
KBI1 141340Z 34005KT 01/01 A3021 RMK A01 T00110010  RH  100%=      5-min Rain = 0
KBI1 141341Z 34005KT 01/01 A3021 RMK A01 T00110010  RH  100%=      5-min Rain = 0
KBI1 141342Z 35005KT 01/01 A3021 RMK A01 T00110010  RH  100%=      5-min Rain = 0
KBI1 141343Z 34005KT 01/01 A3021 RMK A01 T00110011  RH  100%=      5-min Rain = 0
KBI1 141344Z 35004KT 01/01 A3021 RMK A01 T00110011  RH  100%=      5-min Rain = 0
KBI1 141345Z 35005KT 01/01 A3021 RMK A01 T00110010  RH  100%=      5-min Rain = 0
KBI1 141346Z 34005KT 01/01 A3021 RMK A01 T00110010  RH  100%=      5-min Rain = 0
KBI1 141347Z 35005KT 01/01 A3021 RMK A01 T00110010  RH  100%=      5-min Rain = 0
KBI1 141348Z 35005KT 01/01 A3021 RMK A01 T00110010  RH  100%=      5-min Rain = 0
KBI1 141349Z 34004KT 01/01 A3021 RMK A01 T00110010  RH  100%=      5-min Rain = 0
KBI1 141350Z 35005KT 01/01 A3021 RMK A01 T00110011  RH  100%=      5-min Rain = 0
KBI1 141351Z 34004KT 01/01 A3021 RMK A01 T00110011  RH  100%=      5-min Rain = 0
KBI1 141352Z 34005KT 01/01 A3021 RMK A01 T00120011  RH  100%=      5-min Rain = 0
KBI1 141353Z 34006KT 01/01 A3021 RMK A01 T00120011  RH  100%=      5-min Rain = 0
KBI1 141354Z 35006KT 01/01 A3022 RMK A01 T00120012  RH  100%=      5-min Rain = 0
KBI1 141355Z 35005KT 01/01 A3022 RMK A01 T00120011  RH  100%=      5-min Rain = 0
KBI1 141356Z 34005KT 01/01 A3022 RMK A01 T00120011  RH  100%=      5-min Rain = 0
KBI1 141357Z 34004KT 01/01 A3022 RMK A01 T00120011  RH  100%=      5-min Rain = 0
KBI1 141358Z 34005KT 01/01 A3022 RMK A01 T00120012  RH  100%=      5-min Rain = 0
KBI1 141359Z 34005KT 01/01 A3022 RMK A01 T00130012  RH  100%=      5-min Rain = 0
KBI1 141400Z 34004KT 01/01 A3022 RMK A01 T00130012  RH  100%=      5-min Rain = 0
KBI1 141401Z 33005KT 01/01 A3022 RMK A01 T00140013  RH  100%=      5-min Rain = 0
KBI1 141402Z 34006KT 01/01 A3022 RMK A01 T00140013  RH  100%=      5-min Rain = 0
KBI1 141403Z 35006KT 01/01 A3022 RMK A01 T00130012  RH  100%=      5-min Rain = 0
KBI1 141404Z 34006KT 01/01 A3022 RMK A01 T00130012  RH  100%=      5-min Rain = 0
KBI1 141405Z 34007KT 01/01 A3022 RMK A01 T00120012  RH  100%=      5-min Rain = 0
KBI1 141406Z 34007KT 01/01 A3022 RMK A01 T00120011  RH  100%=      5-min Rain = 0
KBI1 141407Z 34007KT 01/01 A3023 RMK A01 T00130012  RH  100%=      5-min Rain = 0
KBI1 141408Z 34007KT 01/01 A3023 RMK A01 T00130012  RH  100%=      5-min Rain = 0
KBI1 141409Z 34007KT 01/01 A3023 RMK A01 T00130012  RH  100%=      5-min Rain = 0
KBI1 141410Z 34005KT 01/01 A3023 RMK A01 T00130012  RH  100%=      5-min Rain = 0
KBI1 141411Z 34005KT 01/01 A3023 RMK A01 T00130012  RH  100%=      5-min Rain = 0
KBI1 141412Z 34005KT 01/01 A3023 RMK A01 T00130013  RH  100%=      5-min Rain = 0
KBI1 141413Z 34005KT 01/01 A3023 RMK A01 T00140013  RH  100%=      5-min Rain = 0
KBI1 141414Z 34004KT 02/01 A3023 RMK A01 T00150014  RH  100%=      5-min Rain = 0
KBI1 141415Z 34005KT 02/02 A3023 RMK A01 T00150015  RH  100%=      5-min Rain = 0
KBI1 141416Z 34006KT 02/02 A3023 RMK A01 T00170016  RH  100%=      5-min Rain = 0
KBI1 141417Z 33006KT 02/02 A3024 RMK A01 T00160015  RH  100%=      5-min Rain = 0
KBI1 141418Z 33006KT 02/02 A3024 RMK A01 T00150015  RH  100%=      5-min Rain = 0
KBI1 141419Z 34005KT 02/02 A3024 RMK A01 T00160015  RH  100%=      5-min Rain = 0
KBI1 141420Z 34006KT 02/02 A3024 RMK A01 T00160016  RH  100%=      5-min Rain = 0
KBI1 141421Z 34007KT 02/02 A3024 RMK A01 T00160016  RH  100%=      5-min Rain = 0
KBI1 141422Z 34007KT 02/02 A3024 RMK A01 T00160015  RH  099%=      5-min Rain = 0
KBI1 141423Z 33006KT 02/02 A3024 RMK A01 T00160015  RH  100%=      5-min Rain = 0
KBI1 141424Z 33006KT 02/02 A3024 RMK A01 T00160015  RH  099%=      5-min Rain = 0
KBI1 141425Z 33006KT 02/02 A3024 RMK A01 T00160015  RH  100%=      5-min Rain = 0
KBI1 141426Z 34007KT 02/02 A3024 RMK A01 T00160015  RH  099%=      5-min Rain = 0
KBI1 141427Z 34006KT 02/02 A3024 RMK A01 T00160015  RH  100%=      5-min Rain = 0
KBI1 141428Z 34005KT 02/02 A3024 RMK A01 T00160015  RH  100%=      5-min Rain = 0
KBI1 141429Z 35007KT 02/02 A3025 RMK A01 T00160015  RH  099%=      5-min Rain = 0
KBI1 141430Z 34007KT 02/02 A3025 RMK A01 T00160016  RH  100%=      5-min Rain = 0
KBI1 141431Z 34007KT 02/02 A3025 RMK A01 T00170016  RH  100%=      5-min Rain = 0
KBI1 141432Z 34007KT 02/02 A3025 RMK A01 T00170017  RH  099%=      5-min Rain = 0
KBI1 141433Z 34006KT 02/02 A3025 RMK A01 T00180017  RH  100%=      5-min Rain = 0
KBI1 141434Z 33006KT 02/02 A3025 RMK A01 T00180018  RH  100%=      5-min Rain = 0
KBI1 141435Z 34007KT 02/02 A3025 RMK A01 T00190019  RH  100%=      5-min Rain = 0
KBI1 141436Z 33006KT 02/02 A3025 RMK A01 T00200019  RH  100%=      5-min Rain = 0
KBI1 141437Z 34006KT 02/02 A3025 RMK A01 T00200019  RH  100%=      5-min Rain = 0
KBI1 141438Z 33005KT 02/02 A3025 RMK A01 T00200019  RH  099%=      5-min Rain = 0
KBI1 141439Z 33006KT 02/02 A3025 RMK A01 T00200020  RH  099%=      5-min Rain = 0
KBI1 141440Z 33006KT 02/02 A3025 RMK A01 T00210020  RH  099%=      5-min Rain = 0
KBI1 141441Z 34005KT 02/02 A3025 RMK A01 T00200020  RH  099%=      5-min Rain = 0
KBI1 141442Z 34006KT 02/02 A3026 RMK A01 T00210020  RH  099%=      5-min Rain = 0
KBI1 141443Z 34006KT 02/02 A3026 RMK A01 T00210020  RH  099%=      5-min Rain = 0
KBI1 141444Z 34007KT 02/02 A3026 RMK A01 T00210020  RH  099%=      5-min Rain = 0
KBI1 141445Z 34007KT 02/02 A3026 RMK A01 T00210020  RH  099%=      5-min Rain = 0
KBI1 141446Z 34007KT 02/02 A3026 RMK A01 T00220021  RH  099%=      5-min Rain = 0
KBI1 141447Z 34006KT 02/02 A3026 RMK A01 T00230022  RH  099%=      5-min Rain = 0
KBI1 141448Z 34006KT 02/02 A3026 RMK A01 T00240023  RH  099%=      5-min Rain = 0
KBI1 141449Z 34006KT 03/03 A3026 RMK A01 T00260025  RH  099%=      5-min Rain = 0
KBI1 141450Z 34007KT 03/03 A3026 RMK A01 T00260025  RH  099%=      5-min Rain = 0
KBI1 141451Z 35005KT 03/03 A3026 RMK A01 T00270026  RH  099%=      5-min Rain = 0
KBI1 141452Z 34006KT 03/03 A3026 RMK A01 T00280027  RH  099%=      5-min Rain = 0
KBI1 141453Z 34006KT 03/03 A3026 RMK A01 T00280027  RH  099%=      5-min Rain = 0
KBI1 141454Z 34005KT 03/03 A3026 RMK A01 T00290028  RH  099%=      5-min Rain = 0
KBI1 141455Z 35006KT 03/03 A3026 RMK A01 T00300030  RH  099%=      5-min Rain = 0
KBI1 141456Z 35006KT 03/03 A3027 RMK A01 T00300029  RH  099%=      5-min Rain = 0
KBI1 141457Z 35006KT 03/03 A3027 RMK A01 T00300029  RH  099%=      5-min Rain = 0
KBI1 141458Z 35005KT 03/03 A3027 RMK A01 T00300029  RH  099%=      5-min Rain = 0
KBI1 141459Z 35006KT 03/03 A3027 RMK A01 T00320031  RH  099%=      5-min Rain = 0
KBI1 141500Z 35005KT 03/03 A3027 RMK A01 T00310030  RH  099%=      5-min Rain = 0
KBI1 141501Z 36006KT 03/03 A3027 RMK A01 T00330032  RH  099%=      5-min Rain = 0
KBI1 141502Z 36007KT 03/03 A3027 RMK A01 T00330032  RH  099%=      5-min Rain = 0
KBI1 141503Z 35009KT 03/03 A3027 RMK A01 T00330031  RH  099%=      5-min Rain = 0
KBI1 141504Z 35009KT 03/03 A3027 RMK A01 T00320031  RH  099%=      5-min Rain = 0
KBI1 141505Z 01007KT 03/03 A3027 RMK A01 T00330032  RH  099%=      5-min Rain = 0
KBI1 141506Z 36006KT 04/04 A3027 RMK A01 T00360035  RH  099%=      5-min Rain = 0
KBI1 141507Z 36007KT 04/04 A3027 RMK A01 T00370036  RH  099%=      5-min Rain = 0
KBI1 141508Z 01009KT 04/04 A3027 RMK A01 T00380037  RH  099%=      5-min Rain = 0
KBI1 141509Z 01010KT 04/04 A3027 RMK A01 T00360035  RH  099%=      5-min Rain = 0
KBI1 141510Z 01009KT 04/03 A3028 RMK A01 T00350034  RH  099%=      5-min Rain = 0
KBI1 141511Z 01009KT 04/03 A3028 RMK A01 T00350034  RH  099%=      5-min Rain = 0
KBI1 141512Z 02007KT 04/03 A3028 RMK A01 T00360034  RH  099%=      5-min Rain = 0
KBI1 141513Z 02007KT 04/04 A3028 RMK A01 T00370036  RH  099%=      5-min Rain = 0
KBI1 141514Z 02008KT 04/04 A3028 RMK A01 T00390038  RH  099%=      5-min Rain = 0
KBI1 141515Z 02009KT 04/04 A3028 RMK A01 T00390038  RH  099%=      5-min Rain = 0
KBI1 141516Z 02010KT 04/04 A3028 RMK A01 T00400039  RH  099%=      5-min Rain = 0
KBI1 141517Z 01009KT 04/04 A3028 RMK A01 T00400038  RH  099%=      5-min Rain = 0
KBI1 141518Z 02013KT 04/04 A3028 RMK A01 T00400038  RH  099%=      5-min Rain = 0
KBI1 141519Z 02010KT 04/04 A3028 RMK A01 T00400038  RH  099%=      5-min Rain = 0
KBI1 141520Z 02010KT 04/04 A3028 RMK A01 T00410039  RH  098%=      5-min Rain = 0
KBI1 141521Z 02013KT 04/04 A3028 RMK A01 T00420040  RH  098%=      5-min Rain = 0
KBI1 141522Z 03011KT 04/04 A3028 RMK A01 T00420039  RH  098%=      5-min Rain = 0
KBI1 141523Z 03011KT 04/04 A3028 RMK A01 T00420039  RH  098%=      5-min Rain = 0
KBI1 141524Z 02012KT 04/04 A3028 RMK A01 T00440041  RH  098%=      5-min Rain = 0
KBI1 141525Z 02010KT 04/04 A3029 RMK A01 T00430039  RH  097%=      5-min Rain = 0
KBI1 141526Z 02012KT 04/04 A3029 RMK A01 T00430038  RH  097%=      5-min Rain = 0
KBI1 141527Z 02011KT 04/04 A3029 RMK A01 T00430038  RH  097%=      5-min Rain = 0
KBI1 141528Z 02014KT 04/04 A3029 RMK A01 T00440039  RH  097%=      5-min Rain = 0
KBI1 141529Z 02012KT 04/04 A3029 RMK A01 T00440038  RH  096%=      5-min Rain = 0
KBI1 141530Z 01012KT 05/04 A3029 RMK A01 T00460040  RH  096%=      5-min Rain = 0
KBI1 141531Z 02011KT 05/04 A3029 RMK A01 T00480040  RH  094%=      5-min Rain = 0
KBI1 141532Z 03014KT 05/04 A3029 RMK A01 T00510039  RH  093%=      5-min Rain = 0
KBI1 141533Z 03012KT 05/04 A303 RMK A01 T00520035  RH  089%=      5-min Rain = 0
KBI1 141534Z 03011G16KT 05/03 A303 RMK A01 T00540033  RH  086%=      5-min Rain = 0
KBI1 141535Z 04011KT 06/03 A303 RMK A01 T00570031  RH  083%=      5-min Rain = 0
KBI1 141536Z 02009KT 06/03 A303 RMK A01 T00600030  RH  081%=      5-min Rain = 0
KBI1 141537Z 03013KT 06/03 A303 RMK A01 T00620025  RH  077%=      5-min Rain = 0
KBI1 141538Z 02015KT 06/02 A303 RMK A01 T00640019  RH  073%=      5-min Rain = 0
KBI1 141539Z 03013KT 06/02 A303 RMK A01 T00640016  RH  071%=      5-min Rain = 0
KBI1 141540Z 04012KT 06/01 A303 RMK A01 T00640014  RH  070%=      5-min Rain = 0
KBI1 141541Z 03014KT 07/01 A303 RMK A01 T00650013  RH  070%=      5-min Rain = 0
KBI1 141542Z 02011KT 07/01 A303 RMK A01 T00660012  RH  069%=      5-min Rain = 0
KBI1 141543Z 02015KT 07/01 A303 RMK A01 T00680012  RH  068%=      5-min Rain = 0
KBI1 141544Z 03012KT 07/01 A303 RMK A01 T00680011  RH  067%=      5-min Rain = 0
KBI1 141545Z 04013KT 07/01 A303 RMK A01 T00680011  RH  067%=      5-min Rain = 0
KBI1 141546Z 03014KT 07/01 A3031 RMK A01 T00700010  RH  066%=      5-min Rain = 0
KBI1 141547Z 02015KT 07/01 A3031 RMK A01 T00690009  RH  066%=      5-min Rain = 0
KBI1 141548Z 02014KT 07/01 A3031 RMK A01 T00690008  RH  065%=      5-min Rain = 0
KBI1 141549Z 03011KT 07/01 A3031 RMK A01 T00680008  RH  065%=      5-min Rain = 0
KBI1 141550Z 02011KT 07/01 A3031 RMK A01 T00700010  RH  066%=      5-min Rain = 0
KBI1 141551Z 02014KT 07/01 A3031 RMK A01 T00730011  RH  065%=      5-min Rain = 0
KBI1 141552Z 02015KT 07/01 A3031 RMK A01 T00740008  RH  063%=      5-min Rain = 0
KBI1 141553Z 02013KT 07/01 A3031 RMK A01 T00720008  RH  063%=      5-min Rain = 0
KBI1 141554Z 03013KT 07/01 A3031 RMK A01 T00720008  RH  064%=      5-min Rain = 0
KBI1 141555Z 03014KT 07/01 A3031 RMK A01 T00730008  RH  063%=      5-min Rain = 0
KBI1 141556Z 03014KT 07/01 A3031 RMK A01 T00730008  RH  064%=      5-min Rain = 0
KBI1 141557Z 03012KT 07/01 A3031 RMK A01 T00730007  RH  063%=      5-min Rain = 0
KBI1 141558Z 02008KT 08/01 A3031 RMK A01 T00750009  RH  063%=      5-min Rain = 0
KBI1 141559Z 02010KT 08/01 A3031 RMK A01 T00770011  RH  063%=      5-min Rain = 0
KBI1 141600Z 02010KT 08/01 A3031 RMK A01 T00790011  RH  062%=      5-min Rain = 0
KBI1 141601Z 02010KT 08/01 A3031 RMK A01 T00800011  RH  062%=      5-min Rain = 0
KBI1 141602Z 03009G14KT 08/01 A3031 RMK A01 T00810011  RH  061%=      5-min Rain = 0
KBI1 141603Z 02013KT 08/01 A3031 RMK A01 T00810011  RH  061%=      5-min Rain = 0
KBI1 141604Z 02014KT 08/01 A3031 RMK A01 T00820009  RH  060%=      5-min Rain = 0
KBI1 141605Z 01013KT 08/01 A3031 RMK A01 T00800007  RH  060%=      5-min Rain = 0
KBI1 141606Z 02013KT 08/01 A3031 RMK A01 T00800008  RH  060%=      5-min Rain = 0
KBI1 141607Z 02011KT 08/01 A3031 RMK A01 T00810007  RH  060%=      5-min Rain = 0
KBI1 141608Z 01011KT 08/01 A3031 RMK A01 T00820008  RH  060%=      5-min Rain = 0
KBI1 141609Z 01016KT 08/01 A3031 RMK A01 T00840008  RH  059%=      5-min Rain = 0
KBI1 141610Z 02013KT 08/01 A3031 RMK A01 T00840005  RH  057%=      5-min Rain = 0
KBI1 141611Z 03013KT 08/00 A3031 RMK A01 T00830004  RH  057%=      5-min Rain = 0
KBI1 141612Z 03016G21KT 08/00 A3031 RMK A01 T00830003  RH  057%=      5-min Rain = 0
KBI1 141613Z 02016KT 08/00 A3031 RMK A01 T00820000  RH  057%=      5-min Rain = 0
KBI1 141614Z 03014KT 08/00 A3031 RMK A01 T00820001  RH  057%=      5-min Rain = 0
KBI1 141615Z 04014KT 08/00 A3032 RMK A01 T008300-0  RH  056%=      5-min Rain = 0
KBI1 141616Z 03013G18KT 08/M00 A3031 RMK A01 T00831001  RH  056%=      5-min Rain = 0
KBI1 141617Z 04011G16KT 08/00 A3031 RMK A01 T00840002  RH  056%=      5-min Rain = 0
KBI1 141618Z 03010KT 09/00 A3031 RMK A01 T00850002  RH  056%=      5-min Rain = 0
KBI1 141619Z 02015KT 09/00 A3032 RMK A01 T00880003  RH  055%=      5-min Rain = 0
KBI1 141620Z 02016KT 09/00 A3032 RMK A01 T00870000  RH  054%=      5-min Rain = 0
KBI1 141621Z 02015KT 09/00 A3032 RMK A01 T00870001  RH  055%=      5-min Rain = 0
KBI1 141622Z 03014G19KT 09/M00 A3032 RMK A01 T00861001  RH  054%=      5-min Rain = 0
KBI1 141623Z 03014KT 09/00 A3032 RMK A01 T00860000  RH  055%=      5-min Rain = 0
KBI1 141624Z 02015KT 09/00 A3032 RMK A01 T00860001  RH  055%=      5-min Rain = 0
KBI1 141625Z 02014KT 09/00 A3032 RMK A01 T00870001  RH  055%=      5-min Rain = 0
KBI1 141626Z 03011KT 09/00 A3032 RMK A01 T00870001  RH  055%=      5-min Rain = 0
KBI1 141627Z 04013KT 09/00 A3032 RMK A01 T00890003  RH  055%=      5-min Rain = 0
KBI1 141628Z 03013KT 09/00 A3032 RMK A01 T00890001  RH  054%=      5-min Rain = 0
KBI1 141629Z 01010G19KT 09/00 A3032 RMK A01 T00890001  RH  054%=      5-min Rain = 0
KBI1 141630Z 02017KT 09/00 A3032 RMK A01 T00910001  RH  053%=      5-min Rain = 0
KBI1 141631Z 02013KT 09/00 A3032 RMK A01 T00910000  RH  053%=      5-min Rain = 0
KBI1 141632Z 04011G16KT 09/00 A3032 RMK A01 T009100-0  RH  053%=      5-min Rain = 0
KBI1 141633Z 04014KT 09/00 A3032 RMK A01 T00920000  RH  053%=      5-min Rain = 0
KBI1 141634Z 03013KT 09/M00 A3032 RMK A01 T00921002  RH  052%=      5-min Rain = 0
KBI1 141635Z 02014KT 09/M00 A3033 RMK A01 T00921002  RH  052%=      5-min Rain = 0
KBI1 141636Z 02015KT 09/M00 A3033 RMK A01 T00921003  RH  051%=      5-min Rain = 0
KBI1 141637Z 03014KT 09/M00 A3033 RMK A01 T00911004  RH  052%=      5-min Rain = 0
KBI1 141638Z 04014KT 09/M00 A3033 RMK A01 T00901004  RH  052%=      5-min Rain = 0
KBI1 141639Z 03011G17KT 09/M00 A3033 RMK A01 T00911003  RH  052%=      5-min Rain = 0
KBI1 141640Z 03016KT 09/M00 A3033 RMK A01 T00921002  RH  052%=      5-min Rain = 0
KBI1 141641Z 02016KT 09/M00 A3033 RMK A01 T00911004  RH  052%=      5-min Rain = 0
KBI1 141642Z 02014KT 09/M00 A3033 RMK A01 T00901003  RH  052%=      5-min Rain = 0
KBI1 141643Z 03014KT 09/M00 A3033 RMK A01 T00901004  RH  052%=      5-min Rain = 0
KBI1 141644Z 02011KT 09/M00 A3033 RMK A01 T00901002  RH  052%=      5-min Rain = 0
KBI1 141645Z 00016KT 09/M00 A3033 RMK A01 T00921001  RH  052%=      5-min Rain = 0
KBI1 141646Z 01016KT 09/M00 A3033 RMK A01 T00931003  RH  051%=      5-min Rain = 0
KBI1 141647Z 01014KT 09/M00 A3033 RMK A01 T00921003  RH  051%=      5-min Rain = 0
KBI1 141648Z 02015KT 09/M00 A3033 RMK A01 T00921002  RH  052%=      5-min Rain = 0
KBI1 141649Z 02013KT 09/M00 A3033 RMK A01 T00921002  RH  052%=      5-min Rain = 0
KBI1 141650Z 01017KT 09/M00 A3033 RMK A01 T00931001  RH  052%=      5-min Rain = 0
KBI1 141651Z 01016KT 09/M00 A3033 RMK A01 T00941003  RH  051%=      5-min Rain = 0
KBI1 141652Z 02014KT 09/M00 A3033 RMK A01 T00931002  RH  051%=      5-min Rain = 0
KBI1 141653Z 01016KT 09/M00 A3033 RMK A01 T00941002  RH  051%=      5-min Rain = 0
KBI1 141654Z 02013KT 09/M00 A3033 RMK A01 T00941002  RH  051%=      5-min Rain = 0
KBI1 141655Z 02012KT 10/M00 A3033 RMK A01 T00951001  RH  051%=      5-min Rain = 0
KBI1 141656Z 02013KT 10/00 A3033 RMK A01 T00950002  RH  052%=      5-min Rain = 0
KBI1 141657Z 03017KT 10/00 A3033 RMK A01 T00970001  RH  051%=      5-min Rain = 0
KBI1 141658Z 03013KT 09/M00 A3033 RMK A01 T00941002  RH  051%=      5-min Rain = 0
KBI1 141659Z 02012KT 09/M00 A3033 RMK A01 T00911001  RH  052%=      5-min Rain = 0
KBI1 141700Z 01015KT 09/00 A3033 RMK A01 T00930002  RH  053%=      5-min Rain = 0
KBI1 141701Z 01016KT 09/00 A3033 RMK A01 T00940003  RH  053%=      5-min Rain = 0
KBI1 141702Z 01013KT 09/00 A3033 RMK A01 T00940002  RH  053%=      5-min Rain = 0
KBI1 141703Z 02014KT 09/00 A3033 RMK A01 T00930003  RH  054%=      5-min Rain = 0
KBI1 141704Z 01014KT 09/00 A3033 RMK A01 T00940004  RH  053%=      5-min Rain = 0
KBI1 141705Z 03015KT 10/00 A3033 RMK A01 T00950004  RH  053%=      5-min Rain = 0
KBI1 141706Z 02012G17KT 10/00 A3033 RMK A01 T00950003  RH  053%=      5-min Rain = 0
KBI1 141707Z 04014KT 09/00 A3033 RMK A01 T00940003  RH  053%=      5-min Rain = 0
KBI1 141708Z 03013KT 10/00 A3033 RMK A01 T00950002  RH  052%=      5-min Rain = 0
KBI1 141709Z 03014KT 10/00 A3033 RMK A01 T00950000  RH  051%=      5-min Rain = 0
KBI1 141710Z 02014KT 10/00 A3033 RMK A01 T00950001  RH  052%=      5-min Rain = 0
KBI1 141711Z 02014KT 10/00 A3033 RMK A01 T00950001  RH  052%=      5-min Rain = 0
KBI1 141712Z 02014KT 10/00 A3033 RMK A01 T00950001  RH  052%=      5-min Rain = 0
KBI1 141713Z 03016KT 10/00 A3033 RMK A01 T009600-0  RH  051%=      5-min Rain = 0
KBI1 141714Z 01015KT 10/M00 A3033 RMK A01 T00961003  RH  050%=      5-min Rain = 0
KBI1 141715Z 02015KT 10/M00 A3033 RMK A01 T00971003  RH  050%=      5-min Rain = 0
KBI1 141716Z 03011KT 10/M00 A3033 RMK A01 T00981004  RH  049%=      5-min Rain = 0
KBI1 141717Z 03010KT 10/M00 A3033 RMK A01 T00991004  RH  049%=      5-min Rain = 0
KBI1 141718Z 04010KT 10/M00 A3033 RMK A01 T01011003  RH  048%=      5-min Rain = 0
KBI1 141719Z 05012KT 10/M00 A3033 RMK A01 T01031004  RH  047%=      5-min Rain = 0
KBI1 141720Z 02013KT 10/M01 A3033 RMK A01 T01031006  RH  047%=      5-min Rain = 0
KBI1 141721Z 03015KT 10/M01 A3034 RMK A01 T01021007  RH  047%=      5-min Rain = 0
KBI1 141722Z 03014G19KT 10/M01 A3033 RMK A01 T01001008  RH  047%=      5-min Rain = 0
KBI1 141723Z 02013KT 10/M01 A3033 RMK A01 T01001008  RH  047%=      5-min Rain = 0
KBI1 141724Z 03013G18KT 10/M01 A3033 RMK A01 T01011009  RH  047%=      5-min Rain = 0
KBI1 141725Z 03013KT 10/M01 A3033 RMK A01 T01001009  RH  046%=      5-min Rain = 0
KBI1 141726Z 02012KT 10/M01 A3033 RMK A01 T01021007  RH  047%=      5-min Rain = 0
KBI1 141727Z 03015KT 10/M01 A3033 RMK A01 T01031009  RH  046%=      5-min Rain = 0
KBI1 141728Z 04012KT 10/M01 A3033 RMK A01 T01031008  RH  046%=      5-min Rain = 0
KBI1 141729Z 04013KT 10/M01 A3033 RMK A01 T01011008  RH  047%=      5-min Rain = 0
KBI1 141730Z 04011KT 10/M01 A3033 RMK A01 T01021007  RH  047%=      5-min Rain = 0
KBI1 141731Z 04013KT 10/M01 A3034 RMK A01 T01041006  RH  046%=      5-min Rain = 0
KBI1 141732Z 03011KT 10/M01 A3033 RMK A01 T01041008  RH  046%=      5-min Rain = 0
KBI1 141733Z 03010KT 11/M01 A3033 RMK A01 T01051007  RH  046%=      5-min Rain = 0
KBI1 141734Z 03008KT 11/M01 A3033 RMK A01 T01061005  RH  046%=      5-min Rain = 0
KBI1 141735Z 05011KT 11/M01 A3033 RMK A01 T01081007  RH  045%=      5-min Rain = 0
KBI1 141736Z 04010KT 11/M01 A3033 RMK A01 T01071009  RH  045%=      5-min Rain = 0
KBI1 141737Z 03012G17KT 11/M01 A3033 RMK A01 T01071009  RH  045%=      5-min Rain = 0
KBI1 141738Z 03015KT 11/M01 A3033 RMK A01 T01061012  RH  044%=      5-min Rain = 0
KBI1 141739Z 03013KT 10/M01 A3033 RMK A01 T01041012  RH  045%=      5-min Rain = 0
KBI1 141740Z 04011KT 10/M01 A3033 RMK A01 T01041010  RH  045%=      5-min Rain = 0
KBI1 141741Z 05012KT 10/M01 A3033 RMK A01 T01041011  RH  045%=      5-min Rain = 0
KBI1 141742Z 05013KT 10/M01 A3033 RMK A01 T01031013  RH  044%=      5-min Rain = 0
KBI1 141743Z 05012KT 10/M01 A3033 RMK A01 T01041010  RH  045%=      5-min Rain = 0
KBI1 141744Z 03010G15KT 11/M01 A3033 RMK A01 T01081009  RH  044%=      5-min Rain = 0
KBI1 141745Z 05013KT 11/M01 A3033 RMK A01 T01091010  RH  044%=      5-min Rain = 0
KBI1 141746Z 05010KT 11/M01 A3033 RMK A01 T01061010  RH  044%=      5-min Rain = 0
KBI1 141747Z 03013KT 11/M01 A3033 RMK A01 T01061010  RH  045%=      5-min Rain = 0
KBI1 141748Z 05011KT 11/M01 A3033 RMK A01 T01061013  RH  043%=      5-min Rain = 0
KBI1 141749Z 04012KT 11/M01 A3033 RMK A01 T01071013  RH  043%=      5-min Rain = 0
KBI1 141750Z 04011KT 11/M01 A3033 RMK A01 T01081013  RH  043%=      5-min Rain = 0
KBI1 141751Z 02014KT 11/M01 A3033 RMK A01 T01071012  RH  044%=      5-min Rain = 0
KBI1 141752Z 03014KT 11/M01 A3033 RMK A01 T01071012  RH  044%=      5-min Rain = 0
KBI1 141753Z 02014KT 11/M01 A3033 RMK A01 T01051014  RH  043%=      5-min Rain = 0
KBI1 141754Z 03012KT 11/M01 A3033 RMK A01 T01061014  RH  043%=      5-min Rain = 0
KBI1 141755Z 03012KT 11/M02 A3033 RMK A01 T01071016  RH  042%=      5-min Rain = 0
KBI1 141756Z 04011KT 11/M02 A3033 RMK A01 T01061015  RH  043%=      5-min Rain = 0
KBI1 141757Z 05008KT 11/M01 A3033 RMK A01 T01071014  RH  043%=      5-min Rain = 0
KBI1 141758Z 05014KT 11/M01 A3033 RMK A01 T01091011  RH  043%=      5-min Rain = 0
KBI1 141759Z 04010KT 11/M01 A3033 RMK A01 T01081012  RH  043%=      5-min Rain = 0
KBI1 141800Z 06011KT 11/M01 A3033 RMK A01 T01081011  RH  044%=      5-min Rain = 0
KBI1 141801Z 06012KT 11/M01 A3033 RMK A01 T01081011  RH  043%=      5-min Rain = 0
KBI1 141802Z 05012KT 11/M01 A3033 RMK A01 T01071012  RH  044%=      5-min Rain = 0
KBI1 141803Z 05010KT 11/M01 A3033 RMK A01 T01061012  RH  044%=      5-min Rain = 0
KBI1 141804Z 04007KT 11/M01 A3033 RMK A01 T01061009  RH  045%=      5-min Rain = 0
KBI1 141805Z 04007KT 11/M01 A3033 RMK A01 T01091009  RH  044%=      5-min Rain = 0
KBI1 141806Z 03009KT 11/M01 A3033 RMK A01 T01111009  RH  043%=      5-min Rain = 0
KBI1 141807Z 02013KT 11/M01 A3033 RMK A01 T01111010  RH  043%=      5-min Rain = 0
KBI1 141808Z 02011KT 11/M01 A3033 RMK A01 T01101011  RH  043%=      5-min Rain = 0
KBI1 141809Z 03014KT 11/M01 A3033 RMK A01 T01101011  RH  043%=      5-min Rain = 0
KBI1 141810Z 04011KT 11/M01 A3033 RMK A01 T01101011  RH  043%=      5-min Rain = 0
KBI1 141811Z 05011KT 11/M01 A3033 RMK A01 T01111010  RH  043%=      5-min Rain = 0
KBI1 141812Z 04011KT 11/M01 A3033 RMK A01 T01111012  RH  042%=      5-min Rain = 0
KBI1 141813Z 04009G14KT 11/M02 A3033 RMK A01 T01081017  RH  042%=      5-min Rain = 0
KBI1 141814Z 03012KT 11/M01 A3033 RMK A01 T01071014  RH  043%=      5-min Rain = 0
KBI1 141815Z 03011KT 11/M01 A3033 RMK A01 T01111009  RH  043%=      5-min Rain = 0
KBI1 141816Z 03012KT 11/M01 A3033 RMK A01 T01141009  RH  043%=      5-min Rain = 0
KBI1 141817Z 02010KT 11/M01 A3033 RMK A01 T01141010  RH  042%=      5-min Rain = 0
KBI1 141818Z 04009KT 11/M01 A3033 RMK A01 T01141011  RH  042%=      5-min Rain = 0
KBI1 141819Z 03007KT 11/M01 A3033 RMK A01 T01121014  RH  042%=      5-min Rain = 0
KBI1 141820Z 06012KT 11/M01 A3033 RMK A01 T01111013  RH  042%=      5-min Rain = 0
KBI1 141821Z 05011KT 11/M01 A3033 RMK A01 T01111013  RH  042%=      5-min Rain = 0
KBI1 141822Z 02010KT 11/M01 A3033 RMK A01 T01131012  RH  042%=      5-min Rain = 0
KBI1 141823Z 01011KT 12/M01 A3033 RMK A01 T01161011  RH  041%=      5-min Rain = 0
KBI1 141824Z 03008KT 12/M01 A3033 RMK A01 T01171011  RH  041%=      5-min Rain = 0
KBI1 141825Z 04011KT 12/M01 A3033 RMK A01 T01191009  RH  041%=      5-min Rain = 0
KBI1 141826Z 05012KT 12/M01 A3033 RMK A01 T01171012  RH  041%=      5-min Rain = 0
KBI1 141827Z 05011KT 11/M01 A3033 RMK A01 T01141012  RH  042%=      5-min Rain = 0
KBI1 141828Z 04010KT 11/M01 A3033 RMK A01 T01141012  RH  042%=      5-min Rain = 0
KBI1 141829Z 03015KT 12/M01 A3033 RMK A01 T01161012  RH  041%=      5-min Rain = 0
KBI1 141830Z 03012KT 12/M02 A3033 RMK A01 T01161019  RH  039%=      5-min Rain = 0
KBI1 141831Z 04012KT 12/M02 A3033 RMK A01 T01151020  RH  039%=      5-min Rain = 0
KBI1 141832Z 03012KT 11/M02 A3032 RMK A01 T01131021  RH  039%=      5-min Rain = 0
KBI1 141833Z 03012KT 11/M02 A3032 RMK A01 T01131021  RH  039%=      5-min Rain = 0
KBI1 141834Z 04012KT 11/M02 A3032 RMK A01 T01141019  RH  039%=      5-min Rain = 0
KBI1 141835Z 02013KT 12/M02 A3032 RMK A01 T01151019  RH  039%=      5-min Rain = 0
KBI1 141836Z 02013G20KT 11/M02 A3032 RMK A01 T01141019  RH  039%=      5-min Rain = 0
KBI1 141837Z 01019KT 11/M02 A3032 RMK A01 T01141019  RH  040%=      5-min Rain = 0
KBI1 141838Z 01015KT 11/M02 A3032 RMK A01 T01131016  RH  041%=      5-min Rain = 0
KBI1 141839Z 01014KT 11/M01 A3032 RMK A01 T01141013  RH  041%=      5-min Rain = 0
KBI1 141840Z 02013KT 12/M01 A3032 RMK A01 T01151013  RH  041%=      5-min Rain = 0
KBI1 141841Z 02008KT 12/M01 A3032 RMK A01 T01151011  RH  042%=      5-min Rain = 0
KBI1 141842Z 02010KT 12/M01 A3032 RMK A01 T01191009  RH  041%=      5-min Rain = 0
KBI1 141843Z 03013KT 12/M01 A3032 RMK A01 T01211010  RH  040%=      5-min Rain = 0
KBI1 141844Z 03012KT 12/M01 A3032 RMK A01 T01201014  RH  040%=      5-min Rain = 0
KBI1 141845Z 02012KT 12/M02 A3032 RMK A01 T01161016  RH  040%=      5-min Rain = 0
KBI1 141846Z 02013KT 12/M02 A3032 RMK A01 T01161017  RH  039%=      5-min Rain = 0
KBI1 141847Z 02011KT 12/M02 A3032 RMK A01 T01161018  RH  039%=      5-min Rain = 0
KBI1 141848Z 04010KT 12/M02 A3032 RMK A01 T01171016  RH  040%=      5-min Rain = 0
KBI1 141849Z 02007KT 12/M01 A3032 RMK A01 T01191013  RH  040%=      5-min Rain = 0
KBI1 141850Z 01012G17KT 12/M02 A3032 RMK A01 T01231015  RH  038%=      5-min Rain = 0
KBI1 141851Z 01010KT 12/M02 A3032 RMK A01 T01211018  RH  038%=      5-min Rain = 0
KBI1 141852Z 01012KT 12/M02 A3032 RMK A01 T01191017  RH  039%=      5-min Rain = 0
KBI1 141853Z 02016KT 12/M02 A3032 RMK A01 T01191018  RH  038%=      5-min Rain = 0
KBI1 141854Z 02013KT 12/M02 A3032 RMK A01 T01171020  RH  038%=      5-min Rain = 0
KBI1 141855Z 03012KT 12/M02 A3032 RMK A01 T01171019  RH  039%=      5-min Rain = 0
KBI1 141856Z 04013KT 12/M02 A3032 RMK A01 T01191018  RH  039%=      5-min Rain = 0
KBI1 141857Z 04013KT 12/M02 A3032 RMK A01 T01181020  RH  038%=      5-min Rain = 0
KBI1 141858Z 05012KT 12/M02 A3032 RMK A01 T01161021  RH  038%=      5-min Rain = 0
KBI1 141859Z 04013KT 12/M02 A3032 RMK A01 T01171019  RH  039%=      5-min Rain = 0
KBI1 141900Z 03015KT 12/M02 A3032 RMK A01 T01171018  RH  039%=      5-min Rain = 0
KBI1 141901Z 03012KT 12/M02 A3032 RMK A01 T01161018  RH  039%=      5-min Rain = 0
KBI1 141902Z 03013G18KT 12/M02 A3032 RMK A01 T01151018  RH  040%=      5-min Rain = 0
KBI1 141903Z 01013KT 11/M02 A3032 RMK A01 T01141017  RH  040%=      5-min Rain = 0
KBI1 141904Z 01012KT 12/M02 A3032 RMK A01 T01151017  RH  040%=      5-min Rain = 0
KBI1 141905Z 01012KT 12/M02 A3032 RMK A01 T01161016  RH  040%=      5-min Rain = 0
KBI1 141906Z 02011KT 12/M02 A3032 RMK A01 T01161017  RH  040%=      5-min Rain = 0
KBI1 141907Z 04012KT 12/M02 A3032 RMK A01 T01171016  RH  040%=      5-min Rain = 0
KBI1 141908Z 02012KT 12/M02 A3032 RMK A01 T01181017  RH  039%=      5-min Rain = 0
KBI1 141909Z 02012KT 12/M02 A3032 RMK A01 T01181016  RH  039%=      5-min Rain = 0
KBI1 141910Z 03013KT 12/M02 A3032 RMK A01 T01181018  RH  039%=      5-min Rain = 0
KBI1 141911Z 02012KT 12/M02 A3032 RMK A01 T01171018  RH  039%=      5-min Rain = 0
KBI1 141912Z 01013KT 12/M02 A3032 RMK A01 T01161018  RH  039%=      5-min Rain = 0
KBI1 141913Z 01014KT 12/M02 A3032 RMK A01 T01171016  RH  039%=      5-min Rain = 0
KBI1 141914Z 03012KT 12/M02 A3032 RMK A01 T01181019  RH  039%=      5-min Rain = 0
KBI1 141915Z 03012KT 12/M02 A3032 RMK A01 T01191018  RH  038%=      5-min Rain = 0
KBI1 141916Z 02013KT 12/M02 A3032 RMK A01 T01221020  RH  037%=      5-min Rain = 0
KBI1 141917Z 03009KT 12/M02 A3031 RMK A01 T01241018  RH  037%=      5-min Rain = 0
KBI1 141918Z 03012KT 13/M02 A3032 RMK A01 T01271019  RH  036%=      5-min Rain = 0
KBI1 141919Z 03015G20KT 13/M02 A3032 RMK A01 T01261020  RH  036%=      5-min Rain = 0
KBI1 141920Z 03014KT 12/M02 A3031 RMK A01 T01241020  RH  037%=      5-min Rain = 0
KBI1 141921Z 04014KT 12/M02 A3031 RMK A01 T01231021  RH  037%=      5-min Rain = 0
KBI1 141922Z 03012KT 12/M02 A3031 RMK A01 T01231021  RH  037%=      5-min Rain = 0
KBI1 141923Z 03011KT 12/M02 A3031 RMK A01 T01231021  RH  037%=      5-min Rain = 0
KBI1 141924Z 04011KT 12/M02 A3031 RMK A01 T01221023  RH  036%=      5-min Rain = 0
KBI1 141925Z 04010KT 12/M02 A3031 RMK A01 T01211020  RH  037%=      5-min Rain = 0
KBI1 141926Z 02011KT 12/M02 A3031 RMK A01 T01231018  RH  037%=      5-min Rain = 0
KBI1 141927Z 02014KT 13/M02 A3031 RMK A01 T01271017  RH  037%=      5-min Rain = 0
KBI1 141928Z 02014G20KT 13/M02 A3031 RMK A01 T01281020  RH  036%=      5-min Rain = 0
KBI1 141929Z 03014KT 13/M02 A3031 RMK A01 T01271021  RH  036%=      5-min Rain = 0
KBI1 141930Z 03013KT 13/M02 A3031 RMK A01 T01261023  RH  035%=      5-min Rain = 0
KBI1 141931Z 04013KT 12/M02 A3031 RMK A01 T01241023  RH  036%=      5-min Rain = 0
KBI1 141932Z 03009KT 12/M03 A3031 RMK A01 T01221026  RH  036%=      5-min Rain = 0
KBI1 141933Z 03009KT 12/M02 A3031 RMK A01 T01221023  RH  036%=      5-min Rain = 0
KBI1 141934Z 03015G20KT 12/M02 A3031 RMK A01 T01241022  RH  036%=      5-min Rain = 0
KBI1 141935Z 03015KT 12/M02 A3031 RMK A01 T01241024  RH  035%=      5-min Rain = 0
KBI1 141936Z 05013KT 12/M03 A3031 RMK A01 T01231025  RH  036%=      5-min Rain = 0
KBI1 141937Z 05010KT 12/M02 A3031 RMK A01 T01221024  RH  036%=      5-min Rain = 0
KBI1 141938Z 04010KT 12/M02 A3031 RMK A01 T01241021  RH  036%=      5-min Rain = 0
KBI1 141939Z 04012KT 13/M02 A3031 RMK A01 T01261021  RH  036%=      5-min Rain = 0
KBI1 141940Z 03013KT 13/M02 A3031 RMK A01 T01261023  RH  035%=      5-min Rain = 0
KBI1 141941Z 04014KT 13/M02 A3031 RMK A01 T01251022  RH  036%=      5-min Rain = 0
KBI1 141942Z 04013KT 13/M02 A3031 RMK A01 T01251023  RH  036%=      5-min Rain = 0
KBI1 141943Z 03012G18KT 12/M02 A3031 RMK A01 T01231023  RH  036%=      5-min Rain = 0
KBI1 141944Z 05014KT 12/M02 A3031 RMK A01 T01231022  RH  036%=      5-min Rain = 0
KBI1 141945Z 05010KT 12/M02 A3031 RMK A01 T01231022  RH  036%=      5-min Rain = 0
KBI1 141946Z 02010KT 13/M02 A3031 RMK A01 T01251020  RH  036%=      5-min Rain = 0
KBI1 141947Z 02013KT 13/M02 A3031 RMK A01 T01281020  RH  036%=      5-min Rain = 0
KBI1 141948Z 02013KT 13/M02 A3031 RMK A01 T01281022  RH  035%=      5-min Rain = 0
KBI1 141949Z 01009KT 13/M02 A303 RMK A01 T01281022  RH  035%=      5-min Rain = 0
KBI1 141950Z 04010KT 13/M02 A303 RMK A01 T01301020  RH  035%=      5-min Rain = 0
KBI1 141951Z 03013KT 13/M02 A3031 RMK A01 T01331020  RH  035%=      5-min Rain = 0
KBI1 141952Z 04014KT 13/M03 A3031 RMK A01 T01311025  RH  034%=      5-min Rain = 0
KBI1 141953Z 03011KT 13/M03 A3031 RMK A01 T01271027  RH  034%=      5-min Rain = 0
KBI1 141954Z 02014KT 13/M03 A3031 RMK A01 T01261025  RH  035%=      5-min Rain = 0
KBI1 141955Z 02012KT 13/M03 A3031 RMK A01 T01261026  RH  035%=      5-min Rain = 0
KBI1 141956Z 02013KT 13/M02 A3031 RMK A01 T01261024  RH  035%=      5-min Rain = 0
KBI1 141957Z 02011KT 13/M03 A303 RMK A01 T01271025  RH  035%=      5-min Rain = 0
KBI1 141958Z 02010KT 13/M03 A303 RMK A01 T01261026  RH  035%=      5-min Rain = 0
KBI1 141959Z 02013G19KT 13/M02 A303 RMK A01 T01261024  RH  035%=      5-min Rain = 0
KBI1 142000Z 03016KT 13/M03 A3031 RMK A01 T01281025  RH  035%=      5-min Rain = 0
KBI1 142001Z 02014KT 13/M03 A3031 RMK A01 T01261027  RH  034%=      5-min Rain = 0
KBI1 142002Z 03012KT 13/M03 A3031 RMK A01 T01261025  RH  035%=      5-min Rain = 0
KBI1 142003Z 02010KT 13/M03 A3031 RMK A01 T01261027  RH  034%=      5-min Rain = 0
KBI1 142004Z 02007KT 13/M03 A303 RMK A01 T01251026  RH  035%=      5-min Rain = 0
KBI1 142005Z 05007KT 13/M02 A303 RMK A01 T01281023  RH  035%=      5-min Rain = 0
KBI1 142006Z 02012G17KT 13/M02 A303 RMK A01 T01311023  RH  034%=      5-min Rain = 0
KBI1 142007Z 02014KT 13/M03 A303 RMK A01 T01311025  RH  034%=      5-min Rain = 0
KBI1 142008Z 03013G19KT 13/M03 A3031 RMK A01 T01301026  RH  034%=      5-min Rain = 0
KBI1 142009Z 03012KT 13/M03 A3031 RMK A01 T01291026  RH  034%=      5-min Rain = 0
KBI1 142010Z 02011KT 13/M03 A303 RMK A01 T01291027  RH  034%=      5-min Rain = 0
KBI1 142011Z 02014KT 13/M03 A303 RMK A01 T01291027  RH  034%=      5-min Rain = 0
KBI1 142012Z 03011G16KT 13/M03 A303 RMK A01 T01291025  RH  034%=      5-min Rain = 0
KBI1 142013Z 03012KT 13/M02 A303 RMK A01 T01311023  RH  034%=      5-min Rain = 0
KBI1 142014Z 04009KT 13/M02 A303 RMK A01 T01321024  RH  034%=      5-min Rain = 0
KBI1 142015Z 05011G17KT 13/M02 A303 RMK A01 T01331023  RH  034%=      5-min Rain = 0
KBI1 142016Z 02010KT 14/M02 A303 RMK A01 T01361021  RH  034%=      5-min Rain = 0
KBI1 142017Z 01010KT 14/M02 A303 RMK A01 T01401020  RH  033%=      5-min Rain = 0
KBI1 142018Z 01014KT 14/M02 A303 RMK A01 T01411022  RH  032%=      5-min Rain = 0
KBI1 142019Z 02013KT 14/M03 A303 RMK A01 T01361026  RH  032%=      5-min Rain = 0
KBI1 142020Z 03012KT 13/M03 A303 RMK A01 T01331027  RH  033%=      5-min Rain = 0
KBI1 142021Z 03011KT 13/M03 A303 RMK A01 T01311026  RH  034%=      5-min Rain = 0
KBI1 142022Z 03009KT 13/M03 A303 RMK A01 T01311025  RH  034%=      5-min Rain = 0
KBI1 142023Z 02012G17KT 13/M02 A303 RMK A01 T01331024  RH  034%=      5-min Rain = 0
KBI1 142024Z 04013KT 13/M03 A303 RMK A01 T01341025  RH  033%=      5-min Rain = 0
KBI1 142025Z 03011KT 14/M02 A303 RMK A01 T01351024  RH  033%=      5-min Rain = 0
KBI1 142026Z 02010KT 14/M03 A303 RMK A01 T01351026  RH  033%=      5-min Rain = 0
KBI1 142027Z 02011KT 14/M03 A303 RMK A01 T01351026  RH  033%=      5-min Rain = 0
KBI1 142028Z 03010KT 13/M03 A303 RMK A01 T01331027  RH  033%=      5-min Rain = 0
KBI1 142029Z 03009KT 13/M03 A303 RMK A01 T01321027  RH  033%=      5-min Rain = 0
KBI1 142030Z 03011KT 13/M03 A303 RMK A01 T01321026  RH  033%=      5-min Rain = 0
KBI1 142031Z 03013KT 13/M03 A303 RMK A01 T01331026  RH  033%=      5-min Rain = 0
KBI1 142032Z 03012KT 13/M03 A303 RMK A01 T01311028  RH  033%=      5-min Rain = 0
KBI1 142033Z 03010KT 13/M03 A303 RMK A01 T01301027  RH  034%=      5-min Rain = 0
KBI1 142034Z 02013G18KT 13/M03 A303 RMK A01 T01311026  RH  034%=      5-min Rain = 0
KBI1 142035Z 02012KT 13/M03 A303 RMK A01 T01311027  RH  033%=      5-min Rain = 0
KBI1 142036Z 02010KT 13/M03 A303 RMK A01 T01321026  RH  033%=      5-min Rain = 0
KBI1 142037Z 02011KT 13/M03 A303 RMK A01 T01321027  RH  033%=      5-min Rain = 0
KBI1 142038Z 04013G18KT 13/M02 A303 RMK A01 T01321024  RH  034%=      5-min Rain = 0
KBI1 142039Z 03011G16KT 14/M02 A303 RMK A01 T01351023  RH  033%=      5-min Rain = 0
KBI1 142040Z 01012KT 14/M02 A303 RMK A01 T01371022  RH  033%=      5-min Rain = 0
KBI1 142041Z 04010KT 14/M02 A303 RMK A01 T01361024  RH  033%=      5-min Rain = 0
KBI1 142042Z 04010KT 14/M02 A303 RMK A01 T01351024  RH  033%=      5-min Rain = 0
KBI1 142043Z 04008KT 14/M02 A303 RMK A01 T01351023  RH  033%=      5-min Rain = 0
KBI1 142044Z 02009KT 14/M02 A303 RMK A01 T01351024  RH  033%=      5-min Rain = 0
KBI1 142045Z 04014KT 14/M02 A303 RMK A01 T01371022  RH  033%=      5-min Rain = 0
KBI1 142046Z 03014KT 14/M03 A303 RMK A01 T01361026  RH  032%=      5-min Rain = 0
KBI1 142047Z 02011KT 13/M03 A303 RMK A01 T01321027  RH  033%=      5-min Rain = 0
KBI1 142048Z 02010KT 13/M03 A303 RMK A01 T01321026  RH  033%=      5-min Rain = 0
KBI1 142049Z 04008KT 13/M02 A303 RMK A01 T01321024  RH  034%=      5-min Rain = 0
KBI1 142050Z 03010G20KT 14/M02 A303 RMK A01 T01351021  RH  034%=      5-min Rain = 0
KBI1 142051Z 02013KT 14/M02 A303 RMK A01 T01371023  RH  033%=      5-min Rain = 0
KBI1 142052Z 01013KT 14/M02 A303 RMK A01 T01361023  RH  033%=      5-min Rain = 0
KBI1 142053Z 01012KT 14/M02 A303 RMK A01 T01351024  RH  033%=      5-min Rain = 0
KBI1 142054Z 01014KT 13/M03 A303 RMK A01 T01341025  RH  033%=      5-min Rain = 0
KBI1 142055Z 01013KT 13/M02 A303 RMK A01 T01321024  RH  034%=      5-min Rain = 0
KBI1 142056Z 02015KT 13/M03 A303 RMK A01 T01321025  RH  034%=      5-min Rain = 0
KBI1 142057Z 02013KT 13/M02 A303 RMK A01 T01321023  RH  034%=      5-min Rain = 0
KBI1 142058Z 03013KT 13/M02 A303 RMK A01 T01331024  RH  034%=      5-min Rain = 0
KBI1 142059Z 03009KT 13/M02 A303 RMK A01 T01321024  RH  034%=      5-min Rain = 0
KBI1 142100Z 03010KT 13/M02 A303 RMK A01 T01331022  RH  034%=      5-min Rain = 0
KBI1 142101Z 02011KT 14/M02 A303 RMK A01 T01361022  RH  033%=      5-min Rain = 0
KBI1 142102Z 03009KT 13/M02 A303 RMK A01 T01341024  RH  033%=      5-min Rain = 0
KBI1 142103Z 02010KT 13/M02 A303 RMK A01 T01341023  RH  034%=      5-min Rain = 0
KBI1 142104Z 02010KT 13/M02 A303 RMK A01 T01341023  RH  034%=      5-min Rain = 0
KBI1 142105Z 00011KT 13/M02 A303 RMK A01 T01341021  RH  034%=      5-min Rain = 0
KBI1 142106Z 36011KT 13/M02 A303 RMK A01 T01341022  RH  034%=      5-min Rain = 0
KBI1 142107Z 01010KT 13/M02 A303 RMK A01 T01341021  RH  034%=      5-min Rain = 0
KBI1 142108Z 03010KT 13/M02 A303 RMK A01 T01341020  RH  034%=      5-min Rain = 0
KBI1 142109Z 02009KT 14/M02 A303 RMK A01 T01351021  RH  034%=      5-min Rain = 0
KBI1 142110Z 04011KT 14/M02 A303 RMK A01 T01351020  RH  034%=      5-min Rain = 0
KBI1 142111Z 04012KT 14/M02 A303 RMK A01 T01361020  RH  034%=      5-min Rain = 0
KBI1 142112Z 04012KT 14/M02 A303 RMK A01 T01361021  RH  034%=      5-min Rain = 0
KBI1 142113Z 05010KT 13/M02 A303 RMK A01 T01341022  RH  034%=      5-min Rain = 0
KBI1 142114Z 04012KT 13/M02 A303 RMK A01 T01341021  RH  034%=      5-min Rain = 0
KBI1 142115Z 04009KT 13/M02 A303 RMK A01 T01321022  RH  034%=      5-min Rain = 0
KBI1 142116Z 01013KT 13/M02 A303 RMK A01 T01331020  RH  035%=      5-min Rain = 0
KBI1 142117Z 01011KT 13/M02 A303 RMK A01 T01321023  RH  034%=      5-min Rain = 0
KBI1 142118Z 01012KT 13/M02 A303 RMK A01 T01301022  RH  035%=      5-min Rain = 0
KBI1 142119Z 02011KT 13/M02 A303 RMK A01 T01291022  RH  035%=      5-min Rain = 0
KBI1 142120Z 04009KT 13/M02 A303 RMK A01 T01301021  RH  035%=      5-min Rain = 0
KBI1 142121Z 02008KT 13/M02 A303 RMK A01 T01331020  RH  035%=      5-min Rain = 0
KBI1 142122Z 02013KT 14/M02 A303 RMK A01 T01351019  RH  034%=      5-min Rain = 0
KBI1 142123Z 01014KT 14/M02 A303 RMK A01 T01351020  RH  034%=      5-min Rain = 0
KBI1 142124Z 02011KT 13/M02 A303 RMK A01 T01331020  RH  035%=      5-min Rain = 0
KBI1 142125Z 01012KT 13/M02 A303 RMK A01 T01331019  RH  035%=      5-min Rain = 0
KBI1 142126Z 00014KT 13/M02 A303 RMK A01 T01341020  RH  034%=      5-min Rain = 0
KBI1 142127Z 00011KT 13/M02 A303 RMK A01 T01321021  RH  034%=      5-min Rain = 0
KBI1 142128Z 00009KT 13/M02 A303 RMK A01 T01321020  RH  035%=      5-min Rain = 0
KBI1 142129Z 36012G17KT 13/M02 A303 RMK A01 T01331019  RH  035%=      5-min Rain = 0
KBI1 142130Z 02014KT 14/M02 A303 RMK A01 T01351018  RH  035%=      5-min Rain = 0
KBI1 142131Z 03014G19KT 13/M02 A303 RMK A01 T01341021  RH  034%=      5-min Rain = 0
KBI1 142132Z 02010KT 13/M02 A303 RMK A01 T01341019  RH  035%=      5-min Rain = 0
KBI1 142133Z 02013KT 13/M02 A303 RMK A01 T01341020  RH  034%=      5-min Rain = 0
KBI1 142134Z 01015KT 13/M02 A303 RMK A01 T01321021  RH  034%=      5-min Rain = 0
KBI1 142135Z 02012G17KT 13/M02 A3031 RMK A01 T01311021  RH  035%=      5-min Rain = 0
KBI1 142136Z 02012G17KT 13/M02 A3031 RMK A01 T01311021  RH  035%=      5-min Rain = 0
KBI1 142137Z 02012KT 13/M02 A3031 RMK A01 T01311022  RH  034%=      5-min Rain = 0
KBI1 142138Z 02011KT 13/M02 A3031 RMK A01 T01311023  RH  034%=      5-min Rain = 0
KBI1 142139Z 03014KT 13/M02 A3031 RMK A01 T01311023  RH  034%=      5-min Rain = 0
KBI1 142140Z 02012KT 13/M02 A3031 RMK A01 T01291024  RH  034%=      5-min Rain = 0
KBI1 142141Z 02012KT 13/M02 A3031 RMK A01 T01291024  RH  035%=      5-min Rain = 0
KBI1 142142Z 02009KT 13/M02 A3031 RMK A01 T01291023  RH  035%=      5-min Rain = 0
KBI1 142143Z 02008KT 13/M02 A3031 RMK A01 T01301022  RH  035%=      5-min Rain = 0
KBI1 142144Z 02006KT 13/M02 A3031 RMK A01 T01311022  RH  035%=      5-min Rain = 0
KBI1 142145Z 04011KT 13/M02 A3031 RMK A01 T01331020  RH  034%=      5-min Rain = 0
KBI1 142146Z 04012KT 13/M02 A3031 RMK A01 T01331023  RH  034%=      5-min Rain = 0
KBI1 142147Z 02012KT 13/M02 A3031 RMK A01 T01311023  RH  034%=      5-min Rain = 0
KBI1 142148Z 03010KT 13/M02 A3031 RMK A01 T01311022  RH  034%=      5-min Rain = 0
KBI1 142149Z 04010KT 13/M02 A3031 RMK A01 T01301022  RH  035%=      5-min Rain = 0
KBI1 142150Z 02010G15KT 13/M02 A3031 RMK A01 T01311023  RH  034%=      5-min Rain = 0
KBI1 142151Z 03009G15KT 13/M02 A3031 RMK A01 T01311023  RH  034%=      5-min Rain = 0
KBI1 142152Z 04011KT 13/M02 A3031 RMK A01 T01311022  RH  034%=      5-min Rain = 0
KBI1 142153Z 04010KT 13/M02 A3031 RMK A01 T01311023  RH  034%=      5-min Rain = 0
KBI1 142154Z 05009KT 13/M02 A3031 RMK A01 T01311023  RH  034%=      5-min Rain = 0
KBI1 142155Z 03010KT 13/M02 A3031 RMK A01 T01311023  RH  034%=      5-min Rain = 0
KBI1 142156Z 04012KT 13/M02 A3031 RMK A01 T01311023  RH  034%=      5-min Rain = 0
KBI1 142157Z 03011KT 13/M02 A3031 RMK A01 T01301024  RH  034%=      5-min Rain = 0
KBI1 142158Z 03013KT 13/M02 A3031 RMK A01 T01301024  RH  034%=      5-min Rain = 0
KBI1 142159Z 03010KT 13/M03 A3031 RMK A01 T01301025  RH  034%=      5-min Rain = 0
KBI1 142200Z 02012KT 13/M03 A3031 RMK A01 T01301025  RH  034%=      5-min Rain = 0
KBI1 142201Z 01009KT 13/M03 A3031 RMK A01 T01291026  RH  034%=      5-min Rain = 0
KBI1 142202Z 02010KT 13/M02 A3031 RMK A01 T01291024  RH  035%=      5-min Rain = 0
KBI1 142203Z 02012KT 13/M02 A3031 RMK A01 T01311024  RH  034%=      5-min Rain = 0
KBI1 142204Z 02011KT 13/M02 A3031 RMK A01 T01311024  RH  034%=      5-min Rain = 0
KBI1 142205Z 03011KT 13/M03 A3031 RMK A01 T01301025  RH  034%=      5-min Rain = 0
KBI1 142206Z 02011KT 13/M03 A3031 RMK A01 T01291026  RH  034%=      5-min Rain = 0
KBI1 142207Z 03010KT 13/M03 A3031 RMK A01 T01291025  RH  034%=      5-min Rain = 0
KBI1 142208Z 02009G14KT 13/M02 A3031 RMK A01 T01301024  RH  034%=      5-min Rain = 0
KBI1 142209Z 03012KT 13/M02 A3031 RMK A01 T01321022  RH  034%=      5-min Rain = 0
KBI1 142210Z 03012KT 13/M03 A3031 RMK A01 T01321025  RH  033%=      5-min Rain = 0
KBI1 142211Z 04012KT 13/M03 A3032 RMK A01 T01301026  RH  034%=      5-min Rain = 0
KBI1 142212Z 04011KT 13/M03 A3032 RMK A01 T01291026  RH  034%=      5-min Rain = 0
KBI1 142213Z 03008KT 13/M03 A3032 RMK A01 T01281026  RH  034%=      5-min Rain = 0
KBI1 142214Z 01009KT 13/M02 A3031 RMK A01 T01291024  RH  034%=      5-min Rain = 0
KBI1 142215Z 01012KT 13/M03 A3031 RMK A01 T01301025  RH  034%=      5-min Rain = 0
KBI1 142216Z 02013KT 13/M03 A3032 RMK A01 T01301025  RH  034%=      5-min Rain = 0
KBI1 142217Z 02014KT 13/M03 A3032 RMK A01 T01291025  RH  034%=      5-min Rain = 0
KBI1 142218Z 02010G15KT 13/M03 A3032 RMK A01 T01281026  RH  034%=      5-min Rain = 0
KBI1 142219Z 03009KT 13/M03 A3032 RMK A01 T01281026  RH  034%=      5-min Rain = 0
KBI1 142220Z 01011KT 13/M03 A3032 RMK A01 T01281026  RH  034%=      5-min Rain = 0
KBI1 142221Z 01012KT 13/M03 A3032 RMK A01 T01281026  RH  034%=      5-min Rain = 0
KBI1 142222Z 01014KT 13/M03 A3032 RMK A01 T01271025  RH  035%=      5-min Rain = 0
KBI1 142223Z 01012KT 13/M03 A3032 RMK A01 T01271025  RH  035%=      5-min Rain = 0
KBI1 142224Z 02012KT 13/M03 A3032 RMK A01 T01271025  RH  035%=      5-min Rain = 0
KBI1 142225Z 02010KT 13/M03 A3032 RMK A01 T01271025  RH  035%=      5-min Rain = 0
KBI1 142226Z 01010KT 13/M02 A3032 RMK A01 T01271024  RH  035%=      5-min Rain = 0
KBI1 142227Z 01011KT 13/M02 A3032 RMK A01 T01271024  RH  035%=      5-min Rain = 0
KBI1 142228Z 01010KT 13/M02 A3032 RMK A01 T01271024  RH  035%=      5-min Rain = 0
KBI1 142229Z 02009KT 13/M02 A3032 RMK A01 T01281023  RH  035%=      5-min Rain = 0
KBI1 142230Z 03011KT 13/M02 A3032 RMK A01 T01281024  RH  035%=      5-min Rain = 0
KBI1 142231Z 03010KT 13/M02 A3032 RMK A01 T01281024  RH  035%=      5-min Rain = 0
KBI1 142232Z 03010KT 13/M02 A3032 RMK A01 T01291024  RH  035%=      5-min Rain = 0
KBI1 142233Z 03008KT 13/M03 A3032 RMK A01 T01281025  RH  034%=      5-min Rain = 0
KBI1 142234Z 04009KT 13/M02 A3032 RMK A01 T01281024  RH  035%=      5-min Rain = 0
KBI1 142235Z 03013KT 13/M02 A3032 RMK A01 T01281024  RH  035%=      5-min Rain = 0
KBI1 142236Z 03010KT 13/M03 A3032 RMK A01 T01281025  RH  035%=      5-min Rain = 0
KBI1 142237Z 04009KT 13/M02 A3032 RMK A01 T01271024  RH  035%=      5-min Rain = 0
KBI1 142238Z 03012KT 13/M02 A3032 RMK A01 T01271024  RH  035%=      5-min Rain = 0
KBI1 142239Z 03013KT 13/M03 A3032 RMK A01 T01271025  RH  035%=      5-min Rain = 0
KBI1 142240Z 03012KT 13/M03 A3032 RMK A01 T01261025  RH  035%=      5-min Rain = 0
KBI1 142241Z 03010KT 13/M03 A3032 RMK A01 T01251025  RH  035%=      5-min Rain = 0
KBI1 142242Z 02010KT 13/M02 A3032 RMK A01 T01251024  RH  035%=      5-min Rain = 0
KBI1 142243Z 03010KT 13/M02 A3032 RMK A01 T01251024  RH  035%=      5-min Rain = 0
KBI1 142244Z 02008KT 13/M02 A3032 RMK A01 T01251024  RH  035%=      5-min Rain = 0
KBI1 142245Z 01008KT 13/M02 A3032 RMK A01 T01251023  RH  036%=      5-min Rain = 0
KBI1 142246Z 02009KT 13/M02 A3033 RMK A01 T01251022  RH  036%=      5-min Rain = 0
KBI1 142247Z 03008KT 13/M02 A3033 RMK A01 T01251023  RH  036%=      5-min Rain = 0
KBI1 142248Z 03007KT 13/M02 A3032 RMK A01 T01251022  RH  036%=      5-min Rain = 0
KBI1 142249Z 02011KT 13/M02 A3033 RMK A01 T01251022  RH  036%=      5-min Rain = 0
KBI1 142250Z 01013KT 13/M02 A3033 RMK A01 T01251021  RH  036%=      5-min Rain = 0
KBI1 142251Z 02011KT 12/M02 A3033 RMK A01 T01241022  RH  036%=      5-min Rain = 0
KBI1 142252Z 02011KT 12/M02 A3033 RMK A01 T01241021  RH  036%=      5-min Rain = 0
KBI1 142253Z 02010KT 12/M02 A3033 RMK A01 T01241021  RH  036%=      5-min Rain = 0
KBI1 142254Z 02010KT 12/M02 A3033 RMK A01 T01241021  RH  037%=      5-min Rain = 0
KBI1 142255Z 02010KT 12/M02 A3033 RMK A01 T01241020  RH  037%=      5-min Rain = 0
KBI1 142256Z 03007KT 12/M02 A3033 RMK A01 T01241020  RH  037%=      5-min Rain = 0
KBI1 142257Z 04009KT 12/M02 A3033 RMK A01 T01231021  RH  036%=      5-min Rain = 0
KBI1 142258Z 03009KT 12/M02 A3033 RMK A01 T01241021  RH  036%=      5-min Rain = 0
KBI1 142259Z 02008KT 12/M02 A3033 RMK A01 T01231021  RH  037%=      5-min Rain = 0
KBI1 142300Z 03006KT 12/M02 A3033 RMK A01 T01231020  RH  037%=      5-min Rain = 0
KBI1 142301Z 04008KT 12/M02 A3033 RMK A01 T01231020  RH  037%=      5-min Rain = 0
KBI1 142302Z 04009KT 12/M02 A3033 RMK A01 T01231021  RH  037%=      5-min Rain = 0
KBI1 142303Z 04008G13KT 12/M02 A3033 RMK A01 T01231020  RH  037%=      5-min Rain = 0
KBI1 142304Z 03010KT 12/M02 A3034 RMK A01 T01231020  RH  037%=      5-min Rain = 0
KBI1 142305Z 04009KT 12/M02 A3034 RMK A01 T01221021  RH  037%=      5-min Rain = 0
KBI1 142306Z 02009KT 12/M02 A3034 RMK A01 T01221021  RH  037%=      5-min Rain = 0
KBI1 142307Z 02009KT 12/M02 A3034 RMK A01 T01211020  RH  037%=      5-min Rain = 0
KBI1 142308Z 03009KT 12/M02 A3034 RMK A01 T01211021  RH  037%=      5-min Rain = 0
KBI1 142309Z 04010KT 12/M02 A3034 RMK A01 T01211021  RH  037%=      5-min Rain = 0
KBI1 142310Z 03010KT 12/M02 A3034 RMK A01 T01201020  RH  037%=      5-min Rain = 0
KBI1 142311Z 04009KT 12/M02 A3034 RMK A01 T01201020  RH  038%=      5-min Rain = 0
KBI1 142312Z 04010KT 12/M02 A3034 RMK A01 T01201020  RH  038%=      5-min Rain = 0
KBI1 142313Z 04009KT 12/M02 A3034 RMK A01 T01201020  RH  038%=      5-min Rain = 0
KBI1 142314Z 03009KT 12/M02 A3034 RMK A01 T01201020  RH  038%=      5-min Rain = 0
KBI1 142315Z 04010KT 12/M02 A3034 RMK A01 T01191020  RH  038%=      5-min Rain = 0
KBI1 142316Z 03008KT 12/M02 A3034 RMK A01 T01191021  RH  038%=      5-min Rain = 0
KBI1 142317Z 04009KT 12/M02 A3034 RMK A01 T01191020  RH  038%=      5-min Rain = 0
KBI1 142318Z 04009KT 12/M02 A3034 RMK A01 T01191020  RH  038%=      5-min Rain = 0
KBI1 142319Z 03007KT 12/M02 A3034 RMK A01 T01191020  RH  038%=      5-min Rain = 0
KBI1 142320Z 03006KT 12/M02 A3034 RMK A01 T01181020  RH  038%=      5-min Rain = 0
KBI1 142321Z 02006KT 12/M02 A3034 RMK A01 T01181020  RH  038%=      5-min Rain = 0
KBI1 142322Z 02009KT 12/M02 A3034 RMK A01 T01181020  RH  038%=      5-min Rain = 0
KBI1 142323Z 02008KT 12/M02 A3034 RMK A01 T01171021  RH  038%=      5-min Rain = 0
KBI1 142324Z 02007KT 12/M02 A3034 RMK A01 T01161021  RH  038%=      5-min Rain = 0
KBI1 142325Z 02006KT 12/M02 A3034 RMK A01 T01161021  RH  038%=      5-min Rain = 0
KBI1 142326Z 01006KT 12/M02 A3034 RMK A01 T01161019  RH  039%=      5-min Rain = 0
KBI1 142327Z 01008KT 12/M02 A3034 RMK A01 T01151020  RH  039%=      5-min Rain = 0
KBI1 142328Z 01008KT 11/M02 A3034 RMK A01 T01141019  RH  039%=      5-min Rain = 0
KBI1 142329Z 02009KT 11/M02 A3034 RMK A01 T01141020  RH  039%=      5-min Rain = 0
KBI1 142330Z 02008KT 11/M02 A3034 RMK A01 T01131020  RH  039%=      5-min Rain = 0
KBI1 142331Z 02006KT 11/M02 A3034 RMK A01 T01131020  RH  039%=      5-min Rain = 0
KBI1 142332Z 02006KT 11/M02 A3034 RMK A01 T01131020  RH  040%=      5-min Rain = 0
KBI1 142333Z 02008KT 11/M02 A3034 RMK A01 T01121020  RH  040%=      5-min Rain = 0
KBI1 142334Z 02006KT 11/M02 A3035 RMK A01 T01111020  RH  040%=      5-min Rain = 0
KBI1 142335Z 02006KT 11/M02 A3035 RMK A01 T01111020  RH  040%=      5-min Rain = 0
KBI1 142336Z 02006KT 11/M02 A3035 RMK A01 T01111019  RH  040%=      5-min Rain = 0
KBI1 142337Z 02007KT 11/M02 A3035 RMK A01 T01101020  RH  040%=      5-min Rain = 0
KBI1 142338Z 03006KT 11/M02 A3035 RMK A01 T01091020  RH  040%=      5-min Rain = 0
KBI1 142339Z 03005KT 11/M02 A3035 RMK A01 T01091020  RH  040%=      5-min Rain = 0
KBI1 142340Z 03005KT 11/M02 A3035 RMK A01 T01091020  RH  040%=      5-min Rain = 0
KBI1 142341Z 03007KT 11/M02 A3035 RMK A01 T01091020  RH  040%=      5-min Rain = 0
KBI1 142342Z 03006KT 11/M02 A3035 RMK A01 T01091020  RH  040%=      5-min Rain = 0
KBI1 142343Z 02006KT 11/M02 A3035 RMK A01 T01091020  RH  041%=      5-min Rain = 0
KBI1 142344Z 02005KT 11/M02 A3035 RMK A01 T01081020  RH  041%=      5-min Rain = 0
KBI1 142345Z 03005KT 11/M02 A3035 RMK A01 T01081020  RH  041%=      5-min Rain = 0
KBI1 142346Z 02005KT 11/M02 A3035 RMK A01 T01081020  RH  041%=      5-min Rain = 0
KBI1 142347Z 02006KT 11/M02 A3035 RMK A01 T01071020  RH  041%=      5-min Rain = 0
KBI1 142348Z 02006KT 11/M02 A3035 RMK A01 T01061020  RH  041%=      5-min Rain = 0
KBI1 142349Z 02006KT 11/M02 A3035 RMK A01 T01051020  RH  041%=      5-min Rain = 0
KBI1 142350Z 02006KT 11/M02 A3035 RMK A01 T01051020  RH  042%=      5-min Rain = 0
KBI1 142351Z 02006KT 10/M02 A3035 RMK A01 T01041021  RH  042%=      5-min Rain = 0
KBI1 142352Z 02005KT 10/M02 A3035 RMK A01 T01031021  RH  042%=      5-min Rain = 0
KBI1 142353Z 02005KT 10/M02 A3035 RMK A01 T01031020  RH  042%=      5-min Rain = 0
KBI1 142354Z 02006KT 10/M02 A3035 RMK A01 T01021020  RH  042%=      5-min Rain = 0
KBI1 142355Z 02005KT 10/M02 A3035 RMK A01 T01021020  RH  043%=      5-min Rain = 0
KBI1 142356Z 02004KT 10/M02 A3035 RMK A01 T01011019  RH  043%=      5-min Rain = 0
KBI1 142357Z 02005KT 10/M02 A3035 RMK A01 T01001019  RH  043%=      5-min Rain = 0
KBI1 142358Z 02005KT 10/M02 A3035 RMK A01 T00991019  RH  043%=      5-min Rain = 0
KBI1 142359Z 02004KT 10/M02 A3035 RMK A01 T00991019  RH  044%=      5-min Rain = 0
KBI1 150000Z 02005KT 10/M02 A3035 RMK A01 T00991019  RH  044%=      5-min Rain = 0
KBI1 150001Z 02005KT 10/M02 A3035 RMK A01 T00981019  RH  044%=      5-min Rain = 0
KBI1 150002Z 01005KT 10/M02 A3035 RMK A01 T00971019  RH  044%=      5-min Rain = 0
KBI1 150003Z 02005KT 10/M02 A3035 RMK A01 T00961019  RH  044%=      5-min Rain = 0
KBI1 150004Z 02005KT 10/M02 A3035 RMK A01 T00961018  RH  045%=      5-min Rain = 0
KBI1 150005Z 02005KT 10/M02 A3035 RMK A01 T00961019  RH  045%=      5-min Rain = 0
KBI1 150006Z 02005KT 10/M02 A3035 RMK A01 T00951019  RH  045%=      5-min Rain = 0
KBI1 150007Z 02005KT 09/M02 A3035 RMK A01 T00941019  RH  045%=      5-min Rain = 0
KBI1 150008Z 02005KT 09/M02 A3035 RMK A01 T00941019  RH  045%=      5-min Rain = 0
KBI1 150009Z 02005KT 09/M02 A3035 RMK A01 T00931018  RH  046%=      5-min Rain = 0
KBI1 150010Z 02005KT 09/M02 A3035 RMK A01 T00931018  RH  046%=      5-min Rain = 0
KBI1 150011Z 01005KT 09/M02 A3035 RMK A01 T00921018  RH  046%=      5-min Rain = 0
KBI1 150012Z 01006KT 09/M02 A3036 RMK A01 T00921018  RH  046%=      5-min Rain = 0
KBI1 150013Z 01006KT 09/M02 A3036 RMK A01 T00911017  RH  046%=      5-min Rain = 0
KBI1 150014Z 01005KT 09/M02 A3036 RMK A01 T00901017  RH  047%=      5-min Rain = 0
KBI1 150015Z 02005KT 09/M02 A3036 RMK A01 T00891017  RH  047%=      5-min Rain = 0
KBI1 150016Z 02005KT 09/M02 A3036 RMK A01 T00891017  RH  047%=      5-min Rain = 0
KBI1 150017Z 02005KT 09/M02 A3036 RMK A01 T00891017  RH  047%=      5-min Rain = 0
KBI1 150018Z 02005KT 09/M02 A3036 RMK A01 T00881018  RH  047%=      5-min Rain = 0
KBI1 150019Z 02005KT 09/M02 A3036 RMK A01 T00871018  RH  048%=      5-min Rain = 0
KBI1 150020Z 02006KT 09/M02 A3036 RMK A01 T00871018  RH  048%=      5-min Rain = 0
KBI1 150021Z 02005KT 09/M02 A3036 RMK A01 T00871017  RH  048%=      5-min Rain = 0
KBI1 150022Z 02006KT 09/M02 A3036 RMK A01 T00871017  RH  048%=      5-min Rain = 0
KBI1 150023Z 02005KT 09/M02 A3036 RMK A01 T00871017  RH  048%=      5-min Rain = 0
KBI1 150024Z 02005KT 09/M02 A3036 RMK A01 T00861017  RH  048%=      5-min Rain = 0
KBI1 150025Z 02006KT 09/M02 A3036 RMK A01 T00851016  RH  049%=      5-min Rain = 0
KBI1 150026Z 02005KT 09/M02 A3036 RMK A01 T00851016  RH  049%=      5-min Rain = 0
KBI1 150027Z 02006KT 09/M02 A3036 RMK A01 T00851016  RH  049%=      5-min Rain = 0
KBI1 150028Z 01006KT 09/M02 A3036 RMK A01 T00851016  RH  049%=      5-min Rain = 0
KBI1 150029Z 02006KT 09/M02 A3036 RMK A01 T00851015  RH  049%=      5-min Rain = 0
KBI1 150030Z 01005KT 08/M02 A3036 RMK A01 T00831016  RH  050%=      5-min Rain = 0
KBI1 150031Z 01005KT 08/M02 A3036 RMK A01 T00821016  RH  050%=      5-min Rain = 0
KBI1 150032Z 02006KT 08/M02 A3036 RMK A01 T00821015  RH  050%=      5-min Rain = 0
KBI1 150033Z 01006KT 08/M02 A3036 RMK A01 T00821015  RH  051%=      5-min Rain = 0
KBI1 150034Z 01005KT 08/M02 A3036 RMK A01 T00821015  RH  051%=      5-min Rain = 0
KBI1 150035Z 01005KT 08/M01 A3036 RMK A01 T00821014  RH  051%=      5-min Rain = 0
KBI1 150036Z 01006KT 08/M01 A3036 RMK A01 T00811014  RH  051%=      5-min Rain = 0
KBI1 150037Z 01006KT 08/M01 A3036 RMK A01 T00801014  RH  051%=      5-min Rain = 0
KBI1 150038Z 01006KT 08/M01 A3036 RMK A01 T00801014  RH  051%=      5-min Rain = 0
KBI1 150039Z 01005KT 08/M01 A3036 RMK A01 T00801014  RH  052%=      5-min Rain = 0
KBI1 150040Z 02006KT 08/M01 A3037 RMK A01 T00791014  RH  052%=      5-min Rain = 0
KBI1 150041Z 02005KT 08/M01 A3037 RMK A01 T00791014  RH  052%=      5-min Rain = 0
KBI1 150042Z 01006KT 08/M01 A3037 RMK A01 T00781014  RH  052%=      5-min Rain = 0
KBI1 150043Z 01006KT 08/M01 A3037 RMK A01 T00771013  RH  053%=      5-min Rain = 0
KBI1 150044Z 01005KT 08/M01 A3037 RMK A01 T00771013  RH  053%=      5-min Rain = 0
KBI1 150045Z 01005KT 08/M01 A3037 RMK A01 T00771012  RH  053%=      5-min Rain = 0
KBI1 150046Z 01005KT 08/M01 A3037 RMK A01 T00761012  RH  054%=      5-min Rain = 0
KBI1 150047Z 01005KT 07/M01 A3037 RMK A01 T00741013  RH  054%=      5-min Rain = 0
KBI1 150048Z 00005KT 07/M01 A3037 RMK A01 T00731012  RH  055%=      5-min Rain = 0
KBI1 150049Z 01005KT 07/M01 A3037 RMK A01 T00721012  RH  055%=      5-min Rain = 0
KBI1 150050Z 00004KT 07/M01 A3037 RMK A01 T00711012  RH  055%=      5-min Rain = 0
KBI1 150051Z 01005KT 07/M01 A3037 RMK A01 T00711012  RH  056%=      5-min Rain = 0
KBI1 150052Z 00005KT 07/M01 A3037 RMK A01 T00711012  RH  056%=      5-min Rain = 0
KBI1 150053Z 00005KT 07/M01 A3037 RMK A01 T00711012  RH  056%=      5-min Rain = 0
KBI1 150054Z 01005KT 07/M01 A3037 RMK A01 T00701012  RH  056%=      5-min Rain = 0
KBI1 150055Z 00005KT 07/M01 A3038 RMK A01 T00691012  RH  056%=      5-min Rain = 0
KBI1 150056Z 00004KT 07/M01 A3038 RMK A01 T00691012  RH  056%=      5-min Rain = 0
KBI1 150057Z 00005KT 07/M01 A3038 RMK A01 T00691012  RH  056%=      5-min Rain = 0
KBI1 150058Z 01005KT 07/M01 A3038 RMK A01 T00691012  RH  056%=      5-min Rain = 0
KBI1 150059Z 00005KT 07/M01 A3038 RMK A01 T00691012  RH  056%=      5-min Rain = 0
KBI1 150100Z 01004KT 07/M01 A3038 RMK A01 T00681012  RH  056%=      5-min Rain = 0
KBI1 150101Z 00005KT 07/M01 A3038 RMK A01 T00681012  RH  057%=      5-min Rain = 0
KBI1 150102Z 00005KT 07/M01 A3038 RMK A01 T00681011  RH  057%=      5-min Rain = 0
KBI1 150103Z 01005KT 07/M01 A3038 RMK A01 T00681012  RH  057%=      5-min Rain = 0
KBI1 150104Z 00005KT 07/M01 A3038 RMK A01 T00681011  RH  057%=      5-min Rain = 0
KBI1 150105Z 01005KT 07/M01 A3038 RMK A01 T00671011  RH  057%=      5-min Rain = 0
KBI1 150106Z 01005KT 07/M01 A3038 RMK A01 T00661011  RH  058%=      5-min Rain = 0
KBI1 150107Z 01005KT 07/M01 A3038 RMK A01 T00651010  RH  058%=      5-min Rain = 0
KBI1 150108Z 01005KT 07/M01 A3038 RMK A01 T00651010  RH  059%=      5-min Rain = 0
KBI1 150109Z 02005KT 07/M01 A3038 RMK A01 T00651010  RH  059%=      5-min Rain = 0
KBI1 150110Z 01005KT 07/M01 A3038 RMK A01 T00661009  RH  059%=      5-min Rain = 0
KBI1 150111Z 02005KT 07/M01 A3038 RMK A01 T00661009  RH  059%=      5-min Rain = 0
KBI1 150112Z 02005KT 07/M01 A3038 RMK A01 T00661009  RH  058%=      5-min Rain = 0
KBI1 150113Z 02005KT 07/M01 A3038 RMK A01 T00671009  RH  058%=      5-min Rain = 0
KBI1 150114Z 02005KT 07/M01 A3038 RMK A01 T00671009  RH  058%=      5-min Rain = 0
KBI1 150115Z 01005KT 07/M01 A3038 RMK A01 T00671009  RH  058%=      5-min Rain = 0
KBI1 150116Z 01005KT 07/M01 A3038 RMK A01 T00671009  RH  058%=      5-min Rain = 0
KBI1 150117Z 01005KT 07/M01 A3038 RMK A01 T00671008  RH  059%=      5-min Rain = 0
KBI1 150118Z 01005KT 07/M01 A3039 RMK A01 T00661009  RH  059%=      5-min Rain = 0
KBI1 150119Z 01005KT 07/M01 A3039 RMK A01 T00651009  RH  059%=      5-min Rain = 0
KBI1 150120Z 01005KT 07/M01 A3039 RMK A01 T00651009  RH  059%=      5-min Rain = 0
KBI1 150121Z 01006KT 06/M01 A3039 RMK A01 T00641009  RH  060%=      5-min Rain = 0
KBI1 150122Z 01005KT 06/M01 A3039 RMK A01 T00631008  RH  060%=      5-min Rain = 0
KBI1 150123Z 01005KT 06/M01 A3039 RMK A01 T00631008  RH  060%=      5-min Rain = 0
KBI1 150124Z 01005KT 06/M01 A3039 RMK A01 T00621009  RH  061%=      5-min Rain = 0
KBI1 150125Z 01005KT 06/M01 A3039 RMK A01 T00611008  RH  061%=      5-min Rain = 0
KBI1 150126Z 01005KT 06/M01 A3039 RMK A01 T00611008  RH  061%=      5-min Rain = 0
KBI1 150127Z 01005KT 06/M01 A3039 RMK A01 T00611008  RH  061%=      5-min Rain = 0
KBI1 150128Z 01004KT 06/M01 A3039 RMK A01 T00611008  RH  061%=      5-min Rain = 0
KBI1 150129Z 01004KT 06/M01 A3039 RMK A01 T00611008  RH  061%=      5-min Rain = 0
KBI1 150130Z 01005KT 06/M01 A3039 RMK A01 T00611008  RH  061%=      5-min Rain = 0
KBI1 150131Z 01005KT 06/M01 A3039 RMK A01 T00601008  RH  061%=      5-min Rain = 0
KBI1 150132Z 01005KT 06/M01 A3039 RMK A01 T00601008  RH  061%=      5-min Rain = 0
KBI1 150133Z 01004KT 06/M01 A3039 RMK A01 T00601008  RH  061%=      5-min Rain = 0
KBI1 150134Z 01005KT 06/M01 A3039 RMK A01 T00601009  RH  061%=      5-min Rain = 0
KBI1 150135Z 01005KT 06/M01 A3039 RMK A01 T00591009  RH  062%=      5-min Rain = 0
KBI1 150136Z 01005KT 06/M01 A304 RMK A01 T00581009  RH  062%=      5-min Rain = 0
KBI1 150137Z 01005KT 06/M01 A304 RMK A01 T00571009  RH  063%=      5-min Rain = 0
KBI1 150138Z 01005KT 06/M01 A304 RMK A01 T00571008  RH  063%=      5-min Rain = 0
KBI1 150139Z 01005KT 06/M01 A304 RMK A01 T00571008  RH  063%=      5-min Rain = 0
KBI1 150140Z 01005KT 06/M01 A304 RMK A01 T00571007  RH  063%=      5-min Rain = 0
KBI1 150141Z 01005KT 06/M01 A304 RMK A01 T00571008  RH  063%=      5-min Rain = 0
KBI1 150142Z 01005KT 06/M01 A304 RMK A01 T00571008  RH  063%=      5-min Rain = 0
KBI1 150143Z 01005KT 06/M01 A304 RMK A01 T00571008  RH  063%=      5-min Rain = 0
KBI1 150144Z 00005KT 06/M01 A304 RMK A01 T00581008  RH  063%=      5-min Rain = 0
KBI1 150145Z 00005KT 06/M01 A304 RMK A01 T00581008  RH  063%=      5-min Rain = 0
KBI1 150146Z 00005KT 06/M01 A304 RMK A01 T00581008  RH  062%=      5-min Rain = 0
KBI1 150147Z 01005KT 06/M01 A304 RMK A01 T00581008  RH  063%=      5-min Rain = 0
KBI1 150148Z 01005KT 06/M01 A304 RMK A01 T00571008  RH  063%=      5-min Rain = 0
KBI1 150149Z 01005KT 06/M01 A304 RMK A01 T00561008  RH  063%=      5-min Rain = 0
KBI1 150150Z 01005KT 06/M01 A304 RMK A01 T00561008  RH  064%=      5-min Rain = 0
KBI1 150151Z 01005KT 06/M01 A304 RMK A01 T00551008  RH  064%=      5-min Rain = 0
KBI1 150152Z 01005KT 06/M01 A304 RMK A01 T00551008  RH  064%=      5-min Rain = 0
KBI1 150153Z 01005KT 06/M01 A304 RMK A01 T00551008  RH  064%=      5-min Rain = 0
KBI1 150154Z 01005KT 06/M01 A304 RMK A01 T00551008  RH  064%=      5-min Rain = 0
KBI1 150155Z 01005KT 06/M01 A304 RMK A01 T00551007  RH  064%=      5-min Rain = 0
KBI1 150156Z 01005KT 06/M01 A304 RMK A01 T00551008  RH  064%=      5-min Rain = 0
KBI1 150157Z 01005KT 06/M01 A304 RMK A01 T00551008  RH  064%=      5-min Rain = 0
KBI1 150158Z 01005KT 06/M01 A304 RMK A01 T00551008  RH  064%=      5-min Rain = 0
KBI1 150159Z 01005KT 06/M01 A304 RMK A01 T00561008  RH  064%=      5-min Rain = 0
KBI1 150200Z 01005KT 06/M01 A304 RMK A01 T00561008  RH  063%=      5-min Rain = 0
KBI1 150201Z 02005KT 06/M01 A304 RMK A01 T00561008  RH  063%=      5-min Rain = 0
KBI1 150202Z 01006KT 06/M01 A3041 RMK A01 T00571008  RH  063%=      5-min Rain = 0
KBI1 150203Z 01005KT 06/M01 A3041 RMK A01 T00561009  RH  063%=      5-min Rain = 0
KBI1 150204Z 01005KT 06/M01 A3041 RMK A01 T00571008  RH  063%=      5-min Rain = 0
KBI1 150205Z 01005KT 06/M01 A3041 RMK A01 T00571008  RH  063%=      5-min Rain = 0
KBI1 150206Z 01005KT 06/M01 A3041 RMK A01 T00561008  RH  063%=      5-min Rain = 0
KBI1 150207Z 01004KT 06/M01 A3041 RMK A01 T00551008  RH  063%=      5-min Rain = 0
KBI1 150208Z 01005KT 06/M01 A3041 RMK A01 T00551008  RH  064%=      5-min Rain = 0
KBI1 150209Z 01004KT 05/M01 A3041 RMK A01 T00541009  RH  064%=      5-min Rain = 0
KBI1 150210Z 01004KT 05/M01 A3041 RMK A01 T00541009  RH  064%=      5-min Rain = 0
KBI1 150211Z 02004KT 05/M01 A3041 RMK A01 T00541009  RH  064%=      5-min Rain = 0
KBI1 150212Z 02004KT 05/M01 A3041 RMK A01 T00541010  RH  063%=      5-min Rain = 0
KBI1 150213Z 01005KT 05/M01 A3041 RMK A01 T00541010  RH  063%=      5-min Rain = 0
KBI1 150214Z 01005KT 05/M01 A3041 RMK A01 T00541009  RH  064%=      5-min Rain = 0
KBI1 150215Z 01006KT 05/M01 A3041 RMK A01 T00541009  RH  064%=      5-min Rain = 0
KBI1 150216Z 01006KT 05/M01 A3041 RMK A01 T00541008  RH  064%=      5-min Rain = 0
KBI1 150217Z 01006KT 05/M01 A3041 RMK A01 T00541009  RH  064%=      5-min Rain = 0
KBI1 150218Z 01005KT 06/M01 A3041 RMK A01 T00551009  RH  063%=      5-min Rain = 0
KBI1 150219Z 01006KT 06/M01 A3041 RMK A01 T00551009  RH  063%=      5-min Rain = 0
KBI1 150220Z 01005KT 06/M01 A3041 RMK A01 T00551009  RH  063%=      5-min Rain = 0
KBI1 150221Z 01006KT 06/M01 A3041 RMK A01 T00551009  RH  063%=      5-min Rain = 0
KBI1 150222Z 01005KT 05/M01 A3041 RMK A01 T00541009  RH  064%=      5-min Rain = 0
KBI1 150223Z 01006KT 05/M01 A3041 RMK A01 T00541009  RH  064%=      5-min Rain = 0
KBI1 150224Z 01005KT 05/M01 A3041 RMK A01 T00531009  RH  064%=      5-min Rain = 0
KBI1 150225Z 02006KT 05/M01 A3041 RMK A01 T00541009  RH  064%=      5-min Rain = 0
KBI1 150226Z 01005KT 05/M01 A3041 RMK A01 T00541009  RH  064%=      5-min Rain = 0
KBI1 150227Z 01005KT 06/M01 A3041 RMK A01 T00551009  RH  064%=      5-min Rain = 0
KBI1 150228Z 02005KT 05/M01 A3041 RMK A01 T00541009  RH  064%=      5-min Rain = 0
KBI1 150229Z 01005KT 05/M01 A3042 RMK A01 T00541010  RH  064%=      5-min Rain = 0
KBI1 150230Z 01006KT 05/M01 A3042 RMK A01 T00531009  RH  064%=      5-min Rain = 0
KBI1 150231Z 01006KT 05/M01 A3042 RMK A01 T00521009  RH  064%=      5-min Rain = 0
KBI1 150232Z 01005KT 05/M01 A3042 RMK A01 T00521009  RH  065%=      5-min Rain = 0
KBI1 150233Z 01006KT 05/M01 A3042 RMK A01 T00511009  RH  065%=      5-min Rain = 0
KBI1 150234Z 01006KT 05/M01 A3042 RMK A01 T00511009  RH  065%=      5-min Rain = 0
KBI1 150235Z 01005KT 05/M01 A3042 RMK A01 T00521009  RH  065%=      5-min Rain = 0
KBI1 150236Z 01005KT 05/M01 A3042 RMK A01 T00511009  RH  065%=      5-min Rain = 0
KBI1 150237Z 01004KT 05/M01 A3042 RMK A01 T00511009  RH  065%=      5-min Rain = 0
KBI1 150238Z 01004KT 05/M01 A3042 RMK A01 T00511009  RH  065%=      5-min Rain = 0
KBI1 150239Z 01005KT 05/M01 A3042 RMK A01 T00511009  RH  065%=      5-min Rain = 0
KBI1 150240Z 01005KT 05/M01 A3042 RMK A01 T00511010  RH  065%=      5-min Rain = 0
KBI1 150241Z 01005KT 05/M01 A3042 RMK A01 T00511010  RH  065%=      5-min Rain = 0
KBI1 150242Z 01005KT 05/M01 A3042 RMK A01 T00511010  RH  065%=      5-min Rain = 0
KBI1 150243Z 01005KT 05/M01 A3042 RMK A01 T00501009  RH  065%=      5-min Rain = 0
KBI1 150244Z 01004KT 05/M01 A3042 RMK A01 T00501009  RH  066%=      5-min Rain = 0
KBI1 150245Z 01005KT 05/M01 A3042 RMK A01 T00491009  RH  066%=      5-min Rain = 0
KBI1 150246Z 01005KT 05/M01 A3042 RMK A01 T00491010  RH  066%=      5-min Rain = 0
KBI1 150247Z 01004KT 05/M01 A3042 RMK A01 T00481010  RH  066%=      5-min Rain = 0
KBI1 150248Z 00004KT 05/M01 A3042 RMK A01 T00481009  RH  066%=      5-min Rain = 0
KBI1 150249Z 00004KT 05/M01 A3042 RMK A01 T00481009  RH  066%=      5-min Rain = 0
KBI1 150250Z 00004KT 05/M01 A3042 RMK A01 T00481010  RH  066%=      5-min Rain = 0
KBI1 150251Z 00003KT 05/M01 A3042 RMK A01 T00481010  RH  066%=      5-min Rain = 0
KBI1 150252Z 00004KT 05/M01 A3042 RMK A01 T00471011  RH  066%=      5-min Rain = 0
KBI1 150253Z 00004KT 05/M01 A3042 RMK A01 T00461011  RH  066%=      5-min Rain = 0
KBI1 150254Z 00004KT 05/M01 A3042 RMK A01 T00451012  RH  067%=      5-min Rain = 0
KBI1 150255Z 00004KT 04/M01 A3042 RMK A01 T00441012  RH  067%=      5-min Rain = 0
KBI1 150256Z 01004KT 04/M01 A3042 RMK A01 T00431012  RH  067%=      5-min Rain = 0
KBI1 150257Z 00004KT 04/M01 A3042 RMK A01 T00421012  RH  068%=      5-min Rain = 0
KBI1 150258Z 00003KT 04/M01 A3042 RMK A01 T00411012  RH  068%=      5-min Rain = 0
KBI1 150259Z 00003KT 04/M01 A3042 RMK A01 T00411012  RH  068%=      5-min Rain = 0
KBI1 150300Z 00004KT 04/M01 A3042 RMK A01 T00411012  RH  069%=      5-min Rain = 0
KBI1 150301Z 00003KT 04/M01 A3042 RMK A01 T00411011  RH  069%=      5-min Rain = 0
KBI1 150302Z 00004KT 04/M01 A3042 RMK A01 T00411011  RH  069%=      5-min Rain = 0
KBI1 150303Z 01004KT 04/M01 A3042 RMK A01 T00401012  RH  069%=      5-min Rain = 0
KBI1 150304Z 01003KT 04/M01 A3042 RMK A01 T00411012  RH  069%=      5-min Rain = 0
KBI1 150305Z 01003KT 04/M01 A3042 RMK A01 T00411011  RH  069%=      5-min Rain = 0
KBI1 150306Z 01003KT 04/M01 A3042 RMK A01 T00411012  RH  069%=      5-min Rain = 0
KBI1 150307Z 01003KT 04/M01 A3042 RMK A01 T00401012  RH  069%=      5-min Rain = 0
KBI1 150308Z 01003KT 04/M01 A3043 RMK A01 T00401012  RH  069%=      5-min Rain = 0
KBI1 150309Z 01002KT 04/M01 A3043 RMK A01 T00401011  RH  069%=      5-min Rain = 0
KBI1 150310Z 01002KT 04/M01 A3043 RMK A01 T00401012  RH  069%=      5-min Rain = 0
KBI1 150311Z 01002KT 04/M01 A3043 RMK A01 T00401012  RH  069%=      5-min Rain = 0
KBI1 150312Z 01002KT 04/M01 A3043 RMK A01 T00401012  RH  069%=      5-min Rain = 0
KBI1 150313Z 01002KT 04/M01 A3043 RMK A01 T00411011  RH  069%=      5-min Rain = 0
KBI1 150314Z 00002KT 04/M01 A3043 RMK A01 T00411011  RH  069%=      5-min Rain = 0
KBI1 150315Z 35002KT 04/M01 A3043 RMK A01 T00411011  RH  069%=      5-min Rain = 0
KBI1 150316Z 34002KT 04/M01 A3043 RMK A01 T00411011  RH  069%=      5-min Rain = 0
KBI1 150317Z 35003KT 04/M01 A3043 RMK A01 T00411012  RH  069%=      5-min Rain = 0
KBI1 150318Z 35003KT 04/M01 A3043 RMK A01 T00411011  RH  068%=      5-min Rain = 0
KBI1 150319Z 36003KT 04/M01 A3043 RMK A01 T00421011  RH  068%=      5-min Rain = 0
KBI1 150320Z 00003KT 04/M01 A3043 RMK A01 T00411011  RH  068%=      5-min Rain = 0
KBI1 150321Z 36003KT 04/M01 A3043 RMK A01 T00411011  RH  069%=      5-min Rain = 0
KBI1 150322Z 36003KT 04/M01 A3043 RMK A01 T00411011  RH  069%=      5-min Rain = 0
KBI1 150323Z 36003KT 04/M01 A3043 RMK A01 T00401011  RH  069%=      5-min Rain = 0
KBI1 150324Z 00004KT 04/M01 A3043 RMK A01 T00391012  RH  069%=      5-min Rain = 0
KBI1 150325Z 00004KT 04/M01 A3043 RMK A01 T00381012  RH  069%=      5-min Rain = 0
KBI1 150326Z 01004KT 04/M01 A3043 RMK A01 T00381013  RH  070%=      5-min Rain = 0
KBI1 150327Z 00004KT 04/M01 A3043 RMK A01 T00371013  RH  070%=      5-min Rain = 0
KBI1 150328Z 00003KT 04/M01 A3043 RMK A01 T00371012  RH  070%=      5-min Rain = 0
KBI1 150329Z 00003KT 04/M01 A3043 RMK A01 T00361013  RH  070%=      5-min Rain = 0
KBI1 150330Z 00003KT 04/M01 A3043 RMK A01 T00361012  RH  071%=      5-min Rain = 0
KBI1 150331Z 36003KT 04/M01 A3043 RMK A01 T00361012  RH  071%=      5-min Rain = 0
KBI1 150332Z 36003KT 04/M01 A3043 RMK A01 T00361012  RH  071%=      5-min Rain = 0
KBI1 150333Z 36004KT 04/M01 A3043 RMK A01 T00361012  RH  071%=      5-min Rain = 0
KBI1 150334Z 36004KT 04/M01 A3043 RMK A01 T00371012  RH  071%=      5-min Rain = 0
KBI1 150335Z 36004KT 04/M01 A3043 RMK A01 T00381011  RH  070%=      5-min Rain = 0
KBI1 150336Z 36004KT 04/M01 A3043 RMK A01 T00381011  RH  070%=      5-min Rain = 0
KBI1 150337Z 36004KT 04/M01 A3043 RMK A01 T00391011  RH  070%=      5-min Rain = 0
KBI1 150338Z 00004KT 04/M01 A3043 RMK A01 T00391012  RH  070%=      5-min Rain = 0
KBI1 150339Z 36004KT 04/M01 A3043 RMK A01 T00391012  RH  069%=      5-min Rain = 0
KBI1 150340Z 00005KT 04/M01 A3043 RMK A01 T00391012  RH  069%=      5-min Rain = 0
KBI1 150341Z 36005KT 04/M01 A3043 RMK A01 T00391012  RH  070%=      5-min Rain = 0
KBI1 150342Z 35004KT 04/M01 A3043 RMK A01 T00391011  RH  070%=      5-min Rain = 0
KBI1 150343Z 36004KT 04/M01 A3043 RMK A01 T00381012  RH  070%=      5-min Rain = 0
KBI1 150344Z 36004KT 04/M01 A3043 RMK A01 T00381012  RH  070%=      5-min Rain = 0
KBI1 150345Z 35004KT 04/M01 A3043 RMK A01 T00371012  RH  070%=      5-min Rain = 0
KBI1 150346Z 35003KT 04/M01 A3043 RMK A01 T00361013  RH  071%=      5-min Rain = 0
KBI1 150347Z 35003KT 04/M01 A3043 RMK A01 T00361012  RH  071%=      5-min Rain = 0
KBI1 150348Z 35003KT 03/M01 A3043 RMK A01 T00341013  RH  071%=      5-min Rain = 0
KBI1 150349Z 35003KT 03/M01 A3043 RMK A01 T00341013  RH  071%=      5-min Rain = 0
KBI1 150350Z 35003KT 03/M01 A3043 RMK A01 T00341012  RH  072%=      5-min Rain = 0
KBI1 150351Z 34003KT 03/M01 A3043 RMK A01 T00331012  RH  072%=      5-min Rain = 0
KBI1 150352Z 34003KT 03/M01 A3043 RMK A01 T00341011  RH  072%=      5-min Rain = 0
KBI1 150353Z 34003KT 04/M01 A3043 RMK A01 T00351011  RH  072%=      5-min Rain = 0
KBI1 150354Z 34003KT 04/M01 A3043 RMK A01 T00351011  RH  072%=      5-min Rain = 0
KBI1 150355Z 34003KT 04/M01 A3043 RMK A01 T00361011  RH  071%=      5-min Rain = 0
KBI1 150356Z 35003KT 04/M01 A3043 RMK A01 T00361012  RH  071%=      5-min Rain = 0
KBI1 150357Z 36003KT 04/M01 A3043 RMK A01 T00351013  RH  071%=      5-min Rain = 0
KBI1 150358Z 35003KT 03/M01 A3043 RMK A01 T00341014  RH  071%=      5-min Rain = 0
KBI1 150359Z 34002KT 03/M02 A3043 RMK A01 T00321015  RH  071%=      5-min Rain = 0
KBI1 150400Z 35003KT 03/M01 A3043 RMK A01 T00321013  RH  072%=      5-min Rain = 0
KBI1 150401Z 34002KT 03/M01 A3043 RMK A01 T00321012  RH  073%=      5-min Rain = 0
KBI1 150402Z 35002KT 03/M01 A3043 RMK A01 T00321012  RH  073%=      5-min Rain = 0
KBI1 150403Z 36002KT 03/M01 A3043 RMK A01 T00321012  RH  073%=      5-min Rain = 0
KBI1 150404Z 35002KT 03/M01 A3043 RMK A01 T00321013  RH  073%=      5-min Rain = 0
KBI1 150405Z 00003KT 03/M01 A3043 RMK A01 T00311013  RH  073%=      5-min Rain = 0
KBI1 150406Z 35002KT 03/M01 A3043 RMK A01 T00311012  RH  073%=      5-min Rain = 0
KBI1 150407Z 36003KT 03/M01 A3043 RMK A01 T00321012  RH  073%=      5-min Rain = 0
KBI1 150408Z 00003KT 03/M01 A3043 RMK A01 T00321011  RH  073%=      5-min Rain = 0
KBI1 150409Z 36003KT 03/M01 A3043 RMK A01 T00331011  RH  073%=      5-min Rain = 0
KBI1 150410Z 36003KT 03/M01 A3043 RMK A01 T00331011  RH  073%=      5-min Rain = 0
KBI1 150411Z 00003KT 03/M01 A3043 RMK A01 T00341011  RH  072%=      5-min Rain = 0
KBI1 150412Z 01003KT 03/M01 A3043 RMK A01 T00341011  RH  072%=      5-min Rain = 0
KBI1 150413Z 01002KT 03/M01 A3043 RMK A01 T00341011  RH  072%=      5-min Rain = 0
KBI1 150414Z 01002KT 03/M01 A3043 RMK A01 T00341012  RH  072%=      5-min Rain = 0
KBI1 150415Z 02003KT 03/M01 A3043 RMK A01 T00331013  RH  072%=      5-min Rain = 0
KBI1 150416Z 02002KT 03/M01 A3043 RMK A01 T00331013  RH  072%=      5-min Rain = 0
KBI1 150417Z 03002KT 03/M01 A3043 RMK A01 T00321012  RH  073%=      5-min Rain = 0
KBI1 150418Z 03002KT 03/M01 A3043 RMK A01 T00321012  RH  073%=      5-min Rain = 0
KBI1 150419Z 02002KT 03/M01 A3043 RMK A01 T00311012  RH  073%=      5-min Rain = 0
KBI1 150420Z 02002KT 03/M01 A3043 RMK A01 T00311012  RH  073%=      5-min Rain = 0
KBI1 150421Z 02002KT 03/M01 A3043 RMK A01 T00311012  RH  073%=      5-min Rain = 0
KBI1 150422Z 02002KT 03/M01 A3043 RMK A01 T00311012  RH  074%=      5-min Rain = 0
KBI1 150423Z 02002KT 03/M01 A3043 RMK A01 T00311011  RH  074%=      5-min Rain = 0
KBI1 150424Z 02002KT 03/M01 A3043 RMK A01 T00311012  RH  074%=      5-min Rain = 0
KBI1 150425Z 02002KT 03/M01 A3043 RMK A01 T00311012  RH  074%=      5-min Rain = 0
KBI1 150426Z 02002KT 03/M01 A3043 RMK A01 T00301012  RH  074%=      5-min Rain = 0
KBI1 150427Z 02002KT 03/M01 A3043 RMK A01 T00301011  RH  074%=      5-min Rain = 0
KBI1 150428Z 02002KT 03/M01 A3043 RMK A01 T00301011  RH  074%=      5-min Rain = 0
KBI1 150429Z 02002KT 03/M01 A3043 RMK A01 T00291012  RH  074%=      5-min Rain = 0
KBI1 150430Z 02001KT 03/M01 A3043 RMK A01 T00301011  RH  075%=      5-min Rain = 0
KBI1 150431Z 02001KT 03/M01 A3043 RMK A01 T00301011  RH  075%=      5-min Rain = 0
KBI1 150432Z 02001KT 03/M01 A3043 RMK A01 T00301011  RH  075%=      5-min Rain = 0
KBI1 150433Z 01001KT 03/M01 A3043 RMK A01 T00301010  RH  075%=      5-min Rain = 0
KBI1 150434Z 02002KT 03/M01 A3043 RMK A01 T00301010  RH  075%=      5-min Rain = 0
KBI1 150435Z 01002KT 03/M01 A3044 RMK A01 T00311010  RH  074%=      5-min Rain = 0
KBI1 150436Z 01001KT 03/M01 A3044 RMK A01 T00311010  RH  074%=      5-min Rain = 0
KBI1 150437Z 01002KT 03/M01 A3044 RMK A01 T00321010  RH  074%=      5-min Rain = 0
KBI1 150438Z 01001KT 03/M01 A3044 RMK A01 T00321010  RH  074%=      5-min Rain = 0
KBI1 150439Z 03002KT 03/M01 A3043 RMK A01 T00321010  RH  074%=      5-min Rain = 0
KBI1 150440Z 02001KT 03/M01 A3043 RMK A01 T00321010  RH  074%=      5-min Rain = 0
KBI1 150441Z 03002KT 03/M01 A3043 RMK A01 T00321010  RH  074%=      5-min Rain = 0
KBI1 150442Z 02002KT 03/M01 A3043 RMK A01 T00321010  RH  074%=      5-min Rain = 0
KBI1 150443Z 03002KT 03/M01 A3043 RMK A01 T00311011  RH  074%=      5-min Rain = 0
KBI1 150444Z 04002KT 03/M01 A3043 RMK A01 T00311012  RH  074%=      5-min Rain = 0
KBI1 150445Z 03002KT 03/M01 A3043 RMK A01 T00291013  RH  074%=      5-min Rain = 0
KBI1 150446Z 04002KT 03/M01 A3043 RMK A01 T00291012  RH  074%=      5-min Rain = 0
KBI1 150447Z 04002KT 03/M01 A3043 RMK A01 T00281012  RH  075%=      5-min Rain = 0
KBI1 150448Z 04002KT 03/M01 A3043 RMK A01 T00281012  RH  075%=      5-min Rain = 0
KBI1 150449Z 03002KT 03/M01 A3043 RMK A01 T00281011  RH  076%=      5-min Rain = 0
KBI1 150450Z 03003KT 03/M01 A3043 RMK A01 T00281010  RH  076%=      5-min Rain = 0
KBI1 150451Z 03002KT 03/M01 A3043 RMK A01 T00281010  RH  076%=      5-min Rain = 0
KBI1 150452Z 03002KT 03/M01 A3043 RMK A01 T00281010  RH  076%=      5-min Rain = 0
KBI1 150453Z 03002KT 03/M01 A3043 RMK A01 T00291010  RH  076%=      5-min Rain = 0
KBI1 150454Z 03003KT 03/M01 A3043 RMK A01 T00281010  RH  076%=      5-min Rain = 0
KBI1 150455Z 02003KT 03/M01 A3044 RMK A01 T00291010  RH  075%=      5-min Rain = 0
KBI1 150456Z 02003KT 03/M01 A3044 RMK A01 T00291011  RH  075%=      5-min Rain = 0
KBI1 150457Z 02003KT 03/M01 A3044 RMK A01 T00291010  RH  075%=      5-min Rain = 0
KBI1 150458Z 02002KT 03/M01 A3044 RMK A01 T00291010  RH  076%=      5-min Rain = 0
KBI1 150459Z 02003KT 03/M01 A3043 RMK A01 T00301010  RH  075%=      5-min Rain = 0
KBI1 150500Z 02003KT 03/M01 A3043 RMK A01 T00301010  RH  075%=      5-min Rain = 0
KBI1 150501Z 02002KT 03/M01 A3043 RMK A01 T00301010  RH  075%=      5-min Rain = 0
KBI1 150502Z 01003KT 03/M01 A3044 RMK A01 T00301010  RH  075%=      5-min Rain = 0
KBI1 150503Z 01002KT 03/M01 A3044 RMK A01 T00301010  RH  075%=      5-min Rain = 0
KBI1 150504Z 01002KT 03/M01 A3044 RMK A01 T00301010  RH  075%=      5-min Rain = 0
KBI1 150505Z 01002KT 03/M01 A3044 RMK A01 T00301011  RH  075%=      5-min Rain = 0
KBI1 150506Z 01002KT 03/M01 A3044 RMK A01 T00281013  RH  074%=      5-min Rain = 0
KBI1 150507Z 01002KT 03/M01 A3044 RMK A01 T00271013  RH  075%=      5-min Rain = 0
KBI1 150508Z 02001KT 03/M01 A3044 RMK A01 T00271013  RH  075%=      5-min Rain = 0
KBI1 150509Z 01001KT 03/M01 A3044 RMK A01 T00261013  RH  075%=      5-min Rain = 0
KBI1 150510Z 02001KT 03/M01 A3044 RMK A01 T00261013  RH  075%=      5-min Rain = 0
KBI1 150511Z 02001KT 03/M01 A3044 RMK A01 T00251014  RH  075%=      5-min Rain = 0
KBI1 150512Z 02001KT 03/M01 A3044 RMK A01 T00251013  RH  076%=      5-min Rain = 0
KBI1 150513Z 02002KT 03/M01 A3044 RMK A01 T00251013  RH  076%=      5-min Rain = 0
KBI1 150514Z 02001KT 03/M01 A3044 RMK A01 T00251012  RH  076%=      5-min Rain = 0
KBI1 150515Z 02002KT 03/M01 A3044 RMK A01 T00251012  RH  077%=      5-min Rain = 0
KBI1 150516Z 03002KT 03/M01 A3044 RMK A01 T00251012  RH  077%=      5-min Rain = 0
KBI1 150517Z 03002KT 03/M01 A3044 RMK A01 T00251011  RH  077%=      5-min Rain = 0
KBI1 150518Z 03002KT 03/M01 A3044 RMK A01 T00261010  RH  077%=      5-min Rain = 0
KBI1 150519Z 03002KT 03/M01 A3044 RMK A01 T00261011  RH  077%=      5-min Rain = 0
KBI1 150520Z 03002KT 03/M01 A3044 RMK A01 T00261012  RH  076%=      5-min Rain = 0
KBI1 150521Z 03002KT 03/M01 A3044 RMK A01 T00261013  RH  076%=      5-min Rain = 0
KBI1 150522Z 03002KT 03/M01 A3044 RMK A01 T00251013  RH  076%=      5-min Rain = 0
KBI1 150523Z 03002KT 03/M01 A3044 RMK A01 T00251012  RH  076%=      5-min Rain = 0
KBI1 150524Z 03002KT 03/M01 A3044 RMK A01 T00261012  RH  076%=      5-min Rain = 0
KBI1 150525Z 03002KT 03/M01 A3044 RMK A01 T00261012  RH  076%=      5-min Rain = 0
KBI1 150526Z 03002KT 03/M01 A3044 RMK A01 T00261012  RH  076%=      5-min Rain = 0
KBI1 150527Z 02001KT 03/M01 A3044 RMK A01 T00251013  RH  076%=      5-min Rain = 0
KBI1 150528Z 03002KT 03/M01 A3044 RMK A01 T00251013  RH  076%=      5-min Rain = 0
KBI1 150529Z 02002KT 03/M01 A3044 RMK A01 T00251012  RH  077%=      5-min Rain = 0
KBI1 150530Z 03002KT 03/M01 A3044 RMK A01 T00251012  RH  077%=      5-min Rain = 0
KBI1 150531Z 02002KT 02/M01 A3044 RMK A01 T00241013  RH  077%=      5-min Rain = 0
KBI1 150532Z 02002KT 02/M02 A3044 RMK A01 T00221015  RH  077%=      5-min Rain = 0
KBI1 150533Z 01002KT 02/M02 A3044 RMK A01 T00211015  RH  077%=      5-min Rain = 0
KBI1 150534Z 01002KT 02/M02 A3044 RMK A01 T00201016  RH  077%=      5-min Rain = 0
KBI1 150535Z 01002KT 02/M02 A3044 RMK A01 T00181018  RH  077%=      5-min Rain = 0
KBI1 150536Z 01002KT 02/M02 A3044 RMK A01 T00171019  RH  077%=      5-min Rain = 0
KBI1 150537Z 01002KT 02/M02 A3044 RMK A01 T00161018  RH  078%=      5-min Rain = 0
KBI1 150538Z 02001KT 02/M02 A3044 RMK A01 T00161017  RH  079%=      5-min Rain = 0
KBI1 150539Z 02002KT 02/M02 A3044 RMK A01 T00161016  RH  079%=      5-min Rain = 0
KBI1 150540Z 02001KT 02/M02 A3044 RMK A01 T00161016  RH  079%=      5-min Rain = 0
KBI1 150541Z 02001KT 02/M02 A3044 RMK A01 T00151018  RH  079%=      5-min Rain = 0
KBI1 150542Z 01001KT 01/M02 A3044 RMK A01 T00141019  RH  079%=      5-min Rain = 0
KBI1 150543Z 01001KT 01/M02 A3044 RMK A01 T00141018  RH  079%=      5-min Rain = 0
KBI1 150544Z 01001KT 01/M02 A3044 RMK A01 T00141017  RH  080%=      5-min Rain = 0
KBI1 150545Z 01001KT 01/M02 A3044 RMK A01 T00141016  RH  080%=      5-min Rain = 0
KBI1 150546Z 02001KT 01/M02 A3044 RMK A01 T00141016  RH  081%=      5-min Rain = 0
KBI1 150547Z 02001KT 01/M02 A3044 RMK A01 T00141015  RH  081%=      5-min Rain = 0
KBI1 150548Z 02002KT 02/M02 A3044 RMK A01 T00151015  RH  081%=      5-min Rain = 0
KBI1 150549Z 02002KT 02/M01 A3044 RMK A01 T00151014  RH  081%=      5-min Rain = 0
KBI1 150550Z 02002KT 02/M02 A3044 RMK A01 T00151015  RH  080%=      5-min Rain = 0
KBI1 150551Z 02002KT 02/M02 A3044 RMK A01 T00151016  RH  080%=      5-min Rain = 0
KBI1 150552Z 03002KT 01/M02 A3044 RMK A01 T00141016  RH  080%=      5-min Rain = 0
KBI1 150553Z 03003KT 01/M02 A3044 RMK A01 T00141016  RH  080%=      5-min Rain = 0
KBI1 150554Z 03003KT 01/M02 A3044 RMK A01 T00141015  RH  081%=      5-min Rain = 0
KBI1 150555Z 03002KT 01/M02 A3044 RMK A01 T00141016  RH  081%=      5-min Rain = 0
KBI1 150556Z 03002KT 01/M02 A3044 RMK A01 T00141016  RH  081%=      5-min Rain = 0
KBI1 150557Z 03002KT 01/M02 A3044 RMK A01 T00141015  RH  081%=      5-min Rain = 0
KBI1 150558Z 04002KT 01/M01 A3044 RMK A01 T00141014  RH  082%=      5-min Rain = 0
KBI1 150559Z 04002KT 01/M01 A3044 RMK A01 T00141012  RH  082%=      5-min Rain = 0

Page generated in 0.078 seconds.